DK5BM-6 Weather Reports


Display with metric or nautical units.
time (UTC)temp
F
wind
direction
speed
MPH
gust
MPH
rain 1hr
in
rain 24hr
in
rain mn
in
humidity
%
barometer
mb
20210727173401 74 46 0.0 4.0 0.00 0.05 0.01 61 991.1
20210727173300 74 45 0.0 4.0 0.00 0.05 0.01 61 991.2
20210727173201 73 45 1.0 4.0 0.00 0.05 0.01 61 991.4
20210727173101 74 46 1.0 4.0 0.00 0.05 0.01 60 991.3
20210727173002 74 46 1.0 4.0 0.00 0.05 0.01 61 991.3
20210727172901 74 46 2.0 4.0 0.00 0.05 0.01 60 991.3
20210727172801 73 46 1.0 4.0 0.00 0.05 0.01 61 991.3
20210727172701 73 46 1.0 4.0 0.00 0.05 0.01 62 991.4
20210727172601 73 46 2.0 4.0 0.00 0.05 0.01 62 991.2
20210727172501 73 46 2.0 4.0 0.00 0.05 0.01 62 991.2
20210727172401 73 46 2.0 4.0 0.00 0.05 0.01 63 991.4
20210727172300 73 46 2.0 4.0 0.00 0.05 0.01 63 991.3
20210727172201 73 46 0.0 4.0 0.00 0.05 0.01 64 991.3
20210727172101 73 46 0.0 4.0 0.00 0.05 0.01 65 991.2
20210727172001 73 46 0.0 4.0 0.00 0.05 0.01 65 991.2
20210727171901 73 45 0.0 4.0 0.00 0.05 0.01 65 991.3
20210727171800 73 45 0.0 4.0 0.00 0.05 0.01 65 991.2
20210727171701 73 45 0.0 4.0 0.00 0.05 0.01 65 991.1
20210727171601 73 45 1.0 4.0 0.00 0.05 0.01 65 991.3
20210727171503 73 45 2.0 4.0 0.00 0.05 0.01 64 991.1
20210727171401 73 45 2.0 2.0 0.00 0.05 0.01 64 991.1
20210727171301 73 45 2.0 2.0 0.00 0.05 0.01 65 991.3
20210727171200 73 46 2.0 2.0 0.00 0.05 0.01 65 991.0
20210727171101 74 45 1.0 2.0 0.00 0.05 0.01 65 991.1
20210727171001 74 45 0.0 2.0 0.00 0.05 0.01 65 991.2
20210727170901 74 45 1.0 2.0 0.00 0.05 0.01 64 991.3
20210727170801 74 45 0.0 2.0 0.00 0.05 0.01 63 991.3
20210727170700 74 45 0.0 2.0 0.00 0.05 0.01 63 991.2
20210727170601 74 45 0.0 2.0 0.00 0.05 0.01 62 991.3
20210727170501 74 45 0.0 2.0 0.00 0.05 0.01 62 991.2
20210727170401 74 45 2.0 2.0 0.00 0.05 0.01 61 991.3
20210727170301 74 45 1.0 2.0 0.00 0.05 0.01 61 991.4
20210727170201 74 45 1.0 2.0 0.00 0.05 0.01 62 991.3
20210727170101 74 45 2.0 2.0 0.00 0.05 0.01 62 991.4
20210727170003 74 45 1.0 2.0 0.00 0.05 0.01 63 991.3
20210727165901 74 45 1.0 2.0 0.00 0.05 0.01 62 991.3
20210727165801 74 45 0.0 2.0 0.00 0.05 0.01 62 991.5
20210727165701 74 45 1.0 2.0 0.00 0.05 0.01 61 991.2
20210727165601 74 45 1.0 4.0 0.00 0.05 0.01 62 991.3
20210727165501 74 46 0.0 4.0 0.00 0.05 0.01 62 991.3
20210727165401 74 45 1.0 4.0 0.00 0.05 0.01 62 991.3
20210727165301 74 45 1.0 4.0 0.00 0.05 0.01 62 991.1
20210727165200 74 46 1.0 4.0 0.00 0.05 0.01 61 991.2
20210727165101 74 46 1.0 4.0 0.00 0.05 0.01 61 991.5
20210727165001 74 46 1.0 4.0 0.00 0.05 0.01 61 991.3
20210727164901 74 46 2.0 4.0 0.00 0.05 0.01 61 991.3
20210727164801 74 45 2.0 4.0 0.00 0.05 0.01 60 991.1
20210727164701 74 45 2.0 4.0 0.00 0.05 0.01 60 991.3
20210727164601 74 45 3.0 4.0 0.00 0.05 0.01 60 991.3
20210727164502 74 46 2.0 4.0 0.00 0.05 0.01 59 991.2
20210727164401 74 46 2.0 4.0 0.00 0.05 0.01 60 991.3
20210727164301 74 46 2.0 4.0 0.00 0.05 0.01 59 991.3
20210727164201 74 46 2.0 4.0 0.00 0.05 0.01 60 991.1
20210727164101 74 46 1.0 4.0 0.00 0.05 0.01 61 991.3
20210727164000 74 47 2.0 4.0 0.00 0.05 0.01 60 991.0
20210727163901 74 49 2.0 4.0 0.00 0.05 0.01 60 991.1
20210727163801 74 51 2.0 4.0 0.00 0.05 0.01 59 991.4
20210727163701 74 54 2.0 4.0 0.00 0.05 0.01 59 991.4
20210727163601 74 55 2.0 4.0 0.00 0.05 0.01 59 991.4
20210727163500 74 58 2.0 4.0 0.00 0.05 0.01 59 991.2
20210727163401 74 60 2.0 4.0 0.00 0.05 0.01 59 991.2
20210727163301 74 63 2.0 4.0 0.00 0.05 0.01 59 991.2
20210727163201 74 65 3.0 4.0 0.00 0.05 0.01 59 991.3
20210727163100 74 68 2.0 4.0 0.00 0.05 0.01 59 991.3
20210727163002 74 68 2.0 4.0 0.00 0.05 0.01 58 991.3
20210727162900 74 71 2.0 4.0 0.00 0.05 0.01 59 991.3
20210727162800 74 75 2.0 4.0 0.00 0.05 0.01 59 991.2
20210727162701 74 78 2.0 4.0 0.00 0.05 0.01 59 991.2
20210727162601 74 83 2.0 4.0 0.00 0.05 0.01 59 991.1
20210727162501 74 88 1.0 4.0 0.00 0.05 0.01 58 991.3
20210727162400 74 90 2.0 4.0 0.00 0.05 0.01 57 991.3
20210727162301 75 95 1.0 4.0 0.00 0.05 0.01 58 991.5
20210727162201 75 101 2.0 4.0 0.00 0.05 0.01 58 991.6
20210727162101 75 106 2.0 4.0 0.00 0.05 0.01 58 991.4
20210727162001 75 107 1.0 4.0 0.00 0.05 0.01 59 991.5
20210727161900 75 108 2.0 4.0 0.00 0.05 0.01 58 991.6
20210727161801 75 108 1.0 4.0 0.00 0.05 0.01 59 991.5
20210727161701 75 105 1.0 4.0 0.00 0.05 0.01 59 991.5
20210727161601 75 103 1.0 4.0 0.00 0.05 0.01 58 991.5
20210727161503 75 100 2.0 4.0 0.00 0.05 0.01 57 991.6
20210727161401 75 95 2.0 4.0 0.00 0.05 0.01 57 991.7
20210727161301 75 84 2.0 7.0 0.00 0.05 0.01 57 991.5
20210727161201 75 73 2.0 7.0 0.00 0.05 0.01 58 991.7
20210727161101 75 65 1.0 7.0 0.00 0.05 0.01 57 991.6
20210727161001 75 66 0.0 7.0 0.00 0.05 0.01 57 991.7
20210727160900 75 69 0.0 7.0 0.00 0.05 0.01 56 991.6
20210727160801 75 70 0.0 7.0 0.00 0.05 0.01 57 991.8
20210727160701 74 73 2.0 7.0 0.00 0.05 0.01 57 991.9
20210727160601 74 72 2.0 7.0 0.00 0.05 0.01 57 991.8
20210727160501 75 69 2.0 7.0 0.00 0.05 0.01 57 991.5
20210727160401 75 70 2.0 7.0 0.00 0.05 0.01 58 991.6
20210727160301 75 73 3.0 7.0 0.00 0.05 0.01 59 991.5
20210727160201 74 76 4.0 7.0 0.00 0.05 0.01 57 991.5
20210727160101 75 75 2.0 7.0 0.00 0.05 0.01 58 991.6
20210727160003 75 72 4.0 7.0 0.00 0.05 0.01 57 991.5
20210727155901 75 71 3.0 7.0 0.00 0.05 0.01 57 991.7
20210727155800 75 72 4.0 7.0 0.00 0.05 0.01 58 991.6
20210727155701 75 68 4.0 7.0 0.00 0.05 0.01 58 991.6
20210727155601 75 68 3.0 7.0 0.00 0.05 0.01 57 991.7
20210727155501 75 69 4.0 7.0 0.00 0.05 0.01 58 991.5
20210727155401 75 68 3.0 6.0 0.00 0.05 0.01 57 991.5
20210727155301 75 66 4.0 6.0 0.00 0.05 0.01 57 991.7
20210727155201 75 65 4.0 6.0 0.00 0.05 0.01 58 991.5
20210727155101 76 71 3.0 6.0 0.00 0.05 0.01 57 991.5
20210727155001 76 75 2.0 6.0 0.00 0.05 0.01 57 991.5
20210727154901 76 70 2.0 6.0 0.00 0.05 0.01 57 991.6
20210727154800 76 62 1.0 6.0 0.00 0.05 0.01 57 991.6
20210727154701 76 59 1.0 6.0 0.00 0.05 0.01 57 991.4
20210727154601 76 61 1.0 6.0 0.00 0.05 0.01 57 991.4
20210727154503 76 68 2.0 6.0 0.00 0.05 0.01 57 991.3
20210727154401 76 68 1.0 6.0 0.00 0.05 0.01 57 991.6
20210727154301 75 69 2.0 6.0 0.00 0.05 0.01 58 991.6
20210727154201 75 72 1.0 6.0 0.00 0.05 0.01 58 991.5
20210727154100 75 68 4.0 7.0 0.00 0.05 0.01 57 991.6
20210727154001 75 65 3.0 7.0 0.00 0.05 0.01 58 991.4
20210727153901 75 61 3.0 7.0 0.00 0.05 0.01 57 991.8
20210727153801 75 62 4.0 7.0 0.00 0.05 0.01 57 991.6
20210727153701 76 58 1.0 8.0 0.00 0.05 0.01 58 991.4
20210727153601 75 55 2.0 8.0 0.00 0.05 0.01 58 991.7
20210727153501 75 48 2.0 8.0 0.00 0.05 0.01 57 991.6
20210727153401 75 45 2.0 8.0 0.00 0.05 0.01 58 991.6
20210727153301 75 44 3.0 8.0 0.00 0.05 0.01 56 991.9
20210727153201 75 41 2.0 8.0 0.00 0.05 0.01 58 991.8
20210727153100 74 40 5.0 8.0 0.00 0.05 0.01 58 991.9
20210727153002 74 41 4.0 8.0 0.00 0.05 0.01 58 991.7
20210727152901 74 46 5.0 8.0 0.00 0.05 0.01 58 991.6
20210727152801 75 46 4.0 8.0 0.00 0.05 0.01 58 991.9
20210727152701 75 50 2.0 8.0 0.00 0.05 0.01 60 991.7
20210727152601 75 50 3.0 8.0 0.00 0.05 0.01 59 991.8
20210727152501 75 54 4.0 8.0 0.00 0.05 0.01 58 991.8
20210727152401 75 57 3.0 6.0 0.00 0.05 0.01 57 991.7
20210727152301 75 59 2.0 6.0 0.00 0.05 0.01 57 991.9
20210727152201 75 60 2.0 6.0 0.00 0.05 0.01 57 991.8
20210727152101 75 60 2.0 6.0 0.00 0.05 0.01 57 991.8
20210727152001 75 58 2.0 6.0 0.00 0.05 0.01 58 991.9
20210727151901 75 54 3.0 6.0 0.00 0.05 0.01 58 991.9
20210727151801 75 55 2.0 6.0 0.00 0.05 0.01 57 992.0
20210727151701 75 55 4.0 6.0 0.00 0.05 0.01 57 991.8
20210727151601 75 55 3.0 6.0 0.00 0.05 0.01 58 991.9
20210727151502 76 56 2.0 4.0 0.00 0.06 0.01 58 991.8
20210727151400 76 52 1.0 4.0 0.00 0.06 0.01 57 991.8
20210727151301 76 47 2.0 6.0 0.00 0.06 0.01 56 992.0
20210727151201 76 45 2.0 6.0 0.00 0.07 0.01 56 991.9
20210727151101 76 48 1.0 6.0 0.00 0.07 0.01 58 991.9
20210727151001 76 53 1.0 6.0 0.00 0.07 0.01 58 992.0
20210727150902 76 61 2.0 6.0 0.00 0.07 0.01 57 991.9
20210727150801 76 63 2.0 6.0 0.00 0.08 0.01 56 992.0
20210727150701 76 63 2.0 6.0 0.00 0.09 0.01 56 991.9
20210727150601 76 65 1.0 6.0 0.00 0.09 0.01 56 992.2
20210727150500 76 58 2.0 7.0 0.00 0.11 0.01 55 992.0
20210727150401 76 56 4.0 7.0 0.00 0.11 0.01 58 991.9
20210727150301 76 61 3.0 7.0 0.00 0.12 0.01 57 992.1
20210727150201 76 63 2.0 7.0 0.00 0.12 0.01 57 991.8
20210727150101 75 63 2.0 7.0 0.00 0.12 0.01 57 992.0
20210727150002 75 61 2.0 7.0 0.00 0.18 0.01 57 992.0
20210727145901 75 59 2.0 7.0 0.00 0.18 0.01 57 992.0
20210727145801 75 62 2.0 7.0 0.00 0.22 0.01 57 992.0
20210727145701 75 64 4.0 7.0 0.00 0.26 0.01 57 992.0
20210727145601 75 64 5.0 7.0 0.00 0.27 0.01 56 991.9
20210727145500 76 72 4.0 7.0 0.00 0.30 0.01 56 992.0
20210727145401 76 74 2.0 6.0 0.00 0.30 0.01 56 992.2
20210727145301 76 75 3.0 6.0 0.00 0.31 0.01 56 992.0
20210727145201 76 78 3.0 6.0 0.00 0.34 0.01 56 992.1
20210727145101 76 78 2.0 6.0 0.00 0.38 0.01 56 992.2
20210727145001 76 74 1.0 6.0 0.00 0.38 0.01 57 992.2
20210727144901 76 70 1.0 6.0 0.00 0.40 0.01 57 992.1
20210727144801 75 66 2.0 6.0 0.00 0.41 0.01 57 992.2
20210727144701 75 64 2.0 6.0 0.00 0.43 0.01 56 992.1
20210727144601 75 62 2.0 6.0 0.00 0.43 0.01 56 992.1
20210727144502 75 58 3.0 6.0 0.00 0.44 0.01 56 991.9
20210727144401 75 55 3.0 6.0 0.00 0.44 0.01 57 992.0
20210727144301 75 51 2.0 6.0 0.00 0.44 0.01 57 992.0
20210727144201 75 47 2.0 6.0 0.00 0.44 0.01 56 991.9
20210727144101 75 47 2.0 6.0 0.00 0.44 0.01 56 992.0
20210727144001 74 52 2.0 6.0 0.00 0.44 0.01 56 992.3
20210727143901 75 60 2.0 6.0 0.00 0.44 0.01 57 992.0
20210727143801 75 62 2.0 6.0 0.00 0.45 0.01 57 991.9
20210727143701 75 66 3.0 6.0 0.00 0.50 0.01 57 992.0
20210727143601 74 71 3.0 6.0 0.00 0.51 0.01 56 992.1
20210727143501 75 76 4.0 6.0 0.00 0.54 0.01 55 992.2
20210727143401 75 84 3.0 4.0 0.00 0.54 0.01 55 992.0
20210727143301 75 90 3.0 4.0 0.00 0.59 0.01 55 992.2
20210727143201 76 88 2.0 4.0 0.00 0.64 0.01 54 992.2
20210727143101 76 80 2.0 4.0 0.00 0.66 0.01 54 992.2
20210727143003 76 71 4.0 4.0 0.00 0.70 0.01 55 992.3
20210727142901 76 57 2.0 4.0 0.00 0.78 0.01 54 992.2
20210727142801 76 48 2.0 4.0 0.00 0.84 0.01 55 992.3
20210727142701 76 42 2.0 4.0 0.00 0.84 0.01 54 992.1
20210727142601 76 44 1.0 4.0 0.00 0.90 0.01 53 992.3
20210727142501 76 46 1.0 4.0 0.00 0.91 0.01 54 992.2
20210727142401 77 50 1.0 4.0 0.00 0.91 0.01 54 992.3
20210727142301 77 57 1.0 4.0 0.00 0.91 0.01 54 992.2
20210727142201 76 68 1.0 4.0 0.00 0.91 0.01 54 992.3
20210727142101 76 78 2.0 4.0 0.00 0.91 0.01 55 992.3
20210727142001 76 85 2.0 4.0 0.00 0.91 0.01 54 992.3
20210727141901 76 100 2.0 4.0 0.00 0.91 0.01 54 992.2
20210727141801 76 115 1.0 4.0 0.00 0.91 0.01 53 992.3
20210727141701 76 118 1.0 4.0 0.00 0.91 0.01 53 992.3
20210727141601 76 119 1.0 4.0 0.00 0.91 0.01 55 992.4
20210727141502 75 121 3.0 4.0 0.00 0.91 0.01 56 992.3
20210727141401 75 121 2.0 4.0 0.00 0.91 0.01 57 992.2
20210727141301 75 124 2.0 4.0 0.00 0.91 0.01 56 992.3
20210727141201 75 121 2.0 4.0 0.00 0.91 0.01 55 992.2
20210727141101 74 119 2.0 4.0 0.00 0.91 0.01 55 992.2
20210727141001 74 118 2.0 4.0 0.00 0.91 0.01 54 992.2
20210727140902 75 108 3.0 4.0 0.00 0.91 0.01 54 992.1
20210727140801 75 98 1.0 4.0 0.00 0.91 0.01 55 992.3
20210727140701 75 96 1.0 4.0 0.00 0.91 0.01 54 992.4
20210727140601 75 94 2.0 4.0 0.00 0.91 0.01 54 992.6
20210727140502 75 90 2.0 4.0 0.00 0.91 0.01 54 992.3
20210727140401 75 91 1.0 4.0 0.00 0.91 0.01 54 992.5
20210727140302 75 94 2.0 4.0 0.00 0.91 0.01 55 992.4
20210727140201 75 93 2.0 4.0 0.00 0.91 0.01 55 992.4
20210727140101 75 89 2.0 4.0 0.00 0.91 0.01 55 992.3
20210727140003 75 82 2.0 4.0 0.00 0.91 0.01 54 992.6
20210727135902 75 76 0.0 4.0 0.00 0.91 0.01 53 992.2
20210727135802 75 72 2.0 4.0 0.00 0.91 0.01 54 992.4
20210727135701 75 68 1.0 4.0 0.00 0.91 0.01 55 992.3
20210727135602 75 61 2.0 4.0 0.00 0.91 0.01 55 992.3
20210727135501 75 58 2.0 4.0 0.00 0.91 0.01 55 992.4
20210727135401 75 60 2.0 4.0 0.00 0.91 0.01 55 992.5
20210727135304 75 55 2.0 4.0 0.00 0.91 0.01 55 992.4
20210727135201 74 53 2.0 4.0 0.00 0.91 0.01 56 992.3
20210727135102 74 50 3.0 4.0 0.00 0.91 0.01 55 992.4
20210727135001 74 55 2.0 4.0 0.00 0.91 0.01 55 992.3
20210727134901 74 57 2.0 4.0 0.00 0.91 0.01 54 992.4
20210727134801 74 65 2.0 4.0 0.00 0.91 0.01 56 992.5
20210727134701 74 70 3.0 4.0 0.00 0.91 0.01 55 992.6
20210727134601 74 73 2.0 4.0 0.00 0.91 0.01 55 992.6
20210727134502 74 77 2.0 4.0 0.00 0.91 0.01 56 992.5
20210727134401 74 67 0.0 4.0 0.00 0.91 0.01 54 992.5
20210727134301 74 67 0.0 4.0 0.00 0.91 0.01 55 992.6
20210727134201 74 67 0.0 4.0 0.00 0.91 0.01 55 992.5
20210727134101 74 68 0.0 4.0 0.00 0.91 0.01 54 992.5
20210727134002 74 62 0.0 4.0 0.00 0.91 0.01 54 992.8
20210727133901 74 56 2.0 4.0 0.00 0.91 0.01 53 992.6
20210727133802 74 48 2.0 4.0 0.00 0.91 0.01 57 992.7
20210727133702 74 42 3.0 4.0 0.00 0.91 0.01 56 992.5
20210727133601 74 40 1.0 4.0 0.00 0.91 0.01 57 992.8
20210727133501 74 36 1.0 4.0 0.00 0.91 0.01 56 992.6
20210727133401 74 33 0.0 4.0 0.00 0.91 0.01 58 992.8
20210727133301 74 35 0.0 4.0 0.00 0.91 0.01 55 992.4
20210727133202 74 35 2.0 4.0 0.00 0.91 0.01 57 992.7
20210727133101 74 31 4.0 6.0 0.00 0.91 0.01 56 992.6
20210727133003 74 32 2.0 6.0 0.00 0.91 0.01 56 992.8
20210727132902 74 36 2.0 6.0 0.00 0.91 0.01 56 992.8
20210727132801 74 42 2.0 6.0 0.00 0.91 0.01 56 992.8
20210727132701 74 46 2.0 6.0 0.00 0.91 0.01 55 992.7
20210727132601 74 47 1.0 6.0 0.00 0.91 0.01 57 992.6
20210727132501 73 47 2.0 6.0 0.00 0.91 0.01 57 992.6
20210727132402 73 45 3.0 7.0 0.00 0.91 0.01 56 992.7
20210727132306 74 39 3.0 7.0 0.00 0.91 0.01 57 992.6
20210727132201 74 39 4.0 7.0 0.00 0.91 0.01 57 992.6
20210727132102 74 38 1.0 7.0 0.00 0.91 0.01 56 992.6
20210727132001 74 38 1.0 7.0 0.00 0.91 0.01 56 992.6
20210727131902 74 36 2.0 7.0 0.00 0.91 0.01 56 992.7
20210727131802 74 30 3.0 7.0 0.00 0.91 0.01 56 992.7
20210727131701 74 26 1.0 7.0 0.00 0.91 0.01 57 992.9
20210727131602 74 26 2.0 7.0 0.00 0.91 0.01 56 992.5
20210727131503 74 26 2.0 7.0 0.00 0.91 0.01 57 992.6
20210727131401 74 28 4.0 7.0 0.00 0.91 0.01 55 992.7
20210727131302 74 30 3.0 7.0 0.00 0.91 0.01 56 992.8
20210727131202 74 28 4.0 7.0 0.00 0.91 0.01 55 992.8
20210727131101 74 34 2.0 7.0 0.00 0.91 0.01 56 992.8
20210727131000 74 34 4.0 7.0 0.00 0.91 0.01 56 992.8
20210727130901 74 38 2.0 7.0 0.00 0.91 0.01 54 992.6
20210727130801 74 40 2.0 7.0 0.00 0.91 0.01 54 992.7
20210727130701 74 45 1.0 7.0 0.00 0.91 0.01 53 992.9
20210727130602 74 53 1.0 7.0 0.00 0.91 0.01 53 992.8
20210727130501 74 64 2.0 7.0 0.00 0.91 0.01 55 992.8
20210727130402 74 69 2.0 7.0 0.00 0.91 0.01 53 992.9
20210727130301 74 73 3.0 7.0 0.00 0.91 0.01 53 992.8
20210727130202 74 78 1.0 7.0 0.00 0.91 0.01 54 992.9
20210727130101 74 74 4.0 6.0 0.00 0.91 0.01 54 992.9
20210727130003 75 76 3.0 6.0 0.00 0.91 0.01 54 992.9
20210727125902 75 75 3.0 6.0 0.00 0.91 0.01 55 992.9
20210727125802 75 79 2.0 6.0 0.00 0.91 0.01 54 993.0
20210727125702 74 77 3.0 6.0 0.00 0.91 0.01 53 992.9
20210727125601 75 73 3.0 6.0 0.00 0.92 0.01 53 993.1
20210727125502 75 67 2.0 6.0 0.00 0.92 0.01 54 993.0
20210727125401 75 61 3.0 6.0 0.00 0.92 0.01 54 993.1
20210727125305 75 59 2.0 6.0 0.00 0.92 0.01 53 992.9
20210727125202 75 60 4.0 6.0 0.00 0.92 0.01 52 992.9
20210727125101 76 61 0.0 6.0 0.00 0.92 0.01 53 993.0
20210727125001 76 69 1.0 6.0 0.00 0.92 0.01 53 993.1
20210727124901 76 68 1.0 6.0 0.00 0.92 0.01 51 992.9
20210727124801 76 67 0.0 6.0 0.00 0.92 0.01 51 993.0
20210727124702 76 66 1.0 6.0 0.00 0.92 0.01 53 993.0
20210727124602 75 62 2.0 6.0 0.00 0.92 0.01 54 993.0
20210727124502 75 60 1.0 6.0 0.00 0.92 0.01 54 993.1
20210727124402 74 61 2.0 6.0 0.00 0.92 0.01 54 992.9
20210727124302 74 65 2.0 6.0 0.00 0.92 0.01 53 993.0
20210727124202 74 71 3.0 6.0 0.00 0.92 0.01 54 992.7
20210727124101 75 77 4.0 7.0 0.00 0.92 0.01 53 992.8
20210727124001 75 73 2.0 7.0 0.00 0.92 0.01 54 992.9
20210727123902 74 78 2.0 7.0 0.00 0.92 0.01 54 992.9
20210727123801 75 80 1.0 7.0 0.00 0.92 0.01 55 993.0
20210727123702 74 80 2.0 7.0 0.00 0.92 0.01 52 992.8
20210727123601 74 81 3.0 7.0 0.00 0.92 0.01 54 993.0
20210727123502 75 82 2.0 7.0 0.00 0.92 0.01 52 992.9
20210727123402 74 81 0.0 7.0 0.00 0.92 0.01 52 993.0
20210727123302 74 76 3.0 7.0 0.00 0.92 0.01 52 992.9
20210727123202 74 73 4.0 7.0 0.00 0.92 0.01 53 993.1
20210727123101 74 72 2.0 4.0 0.00 0.92 0.01 55 992.9
20210727123003 74 74 2.0 4.0 0.00 0.92 0.01 53 993.0
20210727122902 74 72 2.0 4.0 0.00 0.92 0.01 53 992.9
20210727122802 74 69 1.0 4.0 0.00 0.92 0.01 54 993.1
20210727122702 74 70 2.0 4.0 0.00 0.92 0.01 54 993.3
20210727122601 74 71 2.0 4.0 0.00 0.92 0.01 54 993.1
20210727122501 74 74 2.0 4.0 0.00 0.92 0.01 54 993.2
20210727122401 74 79 2.0 4.0 0.00 0.92 0.01 53 993.2
20210727122301 74 84 2.0 4.0 0.00 0.92 0.01 54 993.0
20210727122202 74 84 2.0 4.0 0.00 0.92 0.01 52 993.0
20210727122101 73 83 2.0 4.0 0.00 0.92 0.01 52 993.1
20210727122001 74 82 2.0 4.0 0.00 0.92 0.01 54 993.5
20210727121901 74 86 1.0 4.0 0.00 0.92 0.01 53 993.5
20210727121801 74 91 2.0 4.0 0.00 0.92 0.01 54 993.2
20210727121702 74 97 0.0 4.0 0.00 0.92 0.01 54 993.3
20210727121602 74 99 1.0 4.0 0.00 0.92 0.01 53 993.2
20210727121503 74 102 1.0 4.0 0.00 0.92 0.01 54 993.3
20210727121401 74 106 0.0 4.0 0.00 0.92 0.01 53 993.3
20210727121302 73 109 1.0 4.0 0.00 0.92 0.01 53 993.4
20210727121201 73 111 2.0 4.0 0.00 0.92 0.01 54 993.5
20210727121101 73 119 3.0 4.0 0.00 0.92 0.01 53 993.4
20210727121001 73 132 3.0 4.0 0.00 0.92 0.01 54 993.4
20210727120902 74 135 2.0 6.0 0.00 0.92 0.01 53 993.4
20210727120801 74 132 1.0 6.0 0.00 0.92 0.01 54 993.4
20210727120702 74 128 2.0 6.0 0.00 0.92 0.01 54 993.3
20210727120601 74 130 0.0 6.0 0.00 0.92 0.01 54 993.3
20210727120501 73 134 2.0 6.0 0.00 0.92 0.01 54 993.4
20210727120401 73 137 1.0 6.0 0.00 0.92 0.01 54 993.4
20210727120301 73 141 0.0 6.0 0.00 0.92 0.01 54 993.2
20210727120202 73 148 0.0 6.0 0.00 0.92 0.01 54 993.3
20210727120102 73 161 3.0 6.0 0.00 0.92 0.01 53 993.3
20210727120004 73 186 4.0 6.0 0.00 0.92 0.01 53 993.3
20210727115901 73 242 4.0 6.0 0.00 0.92 0.01 53 993.3
20210727115802 74 238 3.0 4.0 0.00 0.92 0.01 54 993.4
20210727115701 74 233 0.0 4.0 0.00 0.92 0.01 53 993.4
20210727115601 74 230 1.0 4.0 0.00 0.93 0.01 53 993.4
20210727115502 74 225 1.0 4.0 0.00 0.93 0.01 53 993.3
20210727115401 74 211 1.0 4.0 0.00 0.93 0.01 52 993.5
20210727115304 74 200 2.0 4.0 0.00 0.93 0.01 52 993.3
20210727115201 74 185 2.0 4.0 0.00 0.93 0.01 52 993.5
20210727115102 74 170 1.0 4.0 0.00 0.93 0.01 53 993.4
20210727115002 74 161 1.0 4.0 0.00 0.94 0.01 53 993.5
20210727114901 73 148 3.0 4.0 0.00 0.94 0.01 52 993.3
20210727114801 73 111 2.0 4.0 0.00 0.94 0.01 52 993.5
20210727114701 74 85 0.0 6.0 0.00 0.94 0.01 51 993.2
20210727114601 74 93 0.0 6.0 0.00 0.94 0.01 52 993.3
20210727114503 74 98 0.0 6.0 0.00 0.94 0.01 53 993.3
20210727114402 73 104 0.0 6.0 0.00 0.94 0.01 53 993.4
20210727114301 73 111 1.0 6.0 0.00 0.94 0.01 52 993.5
20210727114202 73 113 0.0 6.0 0.00 0.94 0.01 52 993.4
20210727114102 74 112 0.0 6.0 0.00 0.94 0.01 53 993.6
20210727114002 73 109 0.0 6.0 0.00 0.94 0.01 53 993.4
20210727113901 73 109 0.0 6.0 0.00 0.94 0.01 51 993.5
20210727113802 74 113 1.0 6.0 0.00 0.94 0.01 53 993.6
20210727113701 74 119 1.0 6.0 0.00 0.94 0.01 53 993.6
20210727113601 73 117 3.0 6.0 0.00 0.94 0.01 54 993.6
20210727113501 73 122 2.0 6.0 0.00 0.94 0.01 53 993.7
20210727113402 74 117 2.0 4.0 0.00 0.94 0.01 53 993.6
20210727113302 74 118 0.0 4.0 0.00 0.94 0.01 52 993.5
20210727113201 74 144 0.0 7.0 0.00 0.94 0.01 52 993.5
20210727113102 74 148 2.0 7.0 0.00 0.94 0.01 52 993.7
20210727113002 75 147 2.0 7.0 0.00 0.94 0.01 51 993.4
20210727112902 76 154 0.0 7.0 0.00 0.94 0.01 50 993.6
20210727112802 76 164 0.0 7.0 0.00 0.94 0.01 51 993.7
20210727112701 75 172 0.0 7.0 0.00 0.94 0.01 51 993.5
20210727112601 75 172 0.0 7.0 0.00 0.94 0.01 50 993.8
20210727112501 75 185 0.0 7.0 0.00 0.94 0.01 50 993.8
20210727112401 76 200 2.0 7.0 0.00 0.94 0.01 50 993.8
20210727112305 75 209 2.0 7.0 0.00 0.94 0.01 51 993.7
20210727112201 75 239 3.0 7.0 0.00 0.94 0.01 51 993.7
20210727112101 75 307 1.0 6.0 0.00 0.94 0.01 52 993.6
20210727112001 76 332 0.0 6.0 0.00 0.94 0.01 54 993.8
20210727111901 76 348 0.0 6.0 0.00 0.94 0.01 54 993.6
20210727111802 75 8 2.0 6.0 0.00 0.94 0.01 52 993.7
20210727111702 75 20 1.0 6.0 0.00 0.94 0.01 52 993.6
20210727111602 74 29 2.0 6.0 0.00 0.94 0.01 52 993.7
20210727111502 75 48 1.0 6.0 0.00 0.94 0.01 52 993.6
20210727111402 74 53 0.0 6.0 0.00 0.94 0.01 53 993.6
20210727111302 74 58 0.0 6.0 0.00 0.94 0.01 54 993.6
20210727111201 73 70 3.0 6.0 0.00 0.94 0.01 56 993.6
20210727111102 73 72 4.0 6.0 0.00 0.94 0.01 56 993.7
20210727111002 74 77 1.0 6.0 0.00 0.94 0.01 56 993.7
20210727110902 73 84 1.0 6.0 0.00 0.94 0.01 56 993.8
20210727110801 73 86 1.0 6.0 0.00 0.94 0.01 55 993.7
20210727110701 72 88 1.0 6.0 0.00 0.94 0.01 56 993.9
20210727110601 72 89 3.0 6.0 0.00 0.94 0.01 56 993.8
20210727110502 72 85 2.0 6.0 0.00 0.94 0.01 55 993.8
20210727110402 73 85 2.0 6.0 0.00 0.94 0.01 55 993.9
20210727110302 73 85 3.0 6.0 0.00 0.94 0.01 56 994.0
20210727110201 73 86 3.0 6.0 0.00 0.94 0.01 58 993.9
20210727110102 73 92 1.0 6.0 0.00 0.94 0.01 56 993.9
20210727110003 74 91 2.0 6.0 0.00 0.94 0.01 55 994.0
20210727105901 73 87 4.0 7.0 0.00 0.94 0.01 56 994.3
20210727105801 74 82 2.0 7.0 0.00 0.94 0.01 57 993.9
20210727105702 74 78 2.0 7.0 0.00 0.94 0.01 57 993.8
20210727105601 74 73 3.0 7.0 0.00 0.94 0.01 56 993.9
20210727105501 74 77 2.0 7.0 0.00 0.94 0.01 56 994.0
20210727105401 74 79 2.0 7.0 0.00 0.94 0.01 59 993.9
20210727105301 73 80 2.0 7.0 0.00 0.94 0.01 57 994.1
20210727105202 73 76 1.0 7.0 0.00 0.94 0.01 57 993.8
20210727105101 73 74 2.0 7.0 0.00 0.94 0.01 58 993.9
20210727105001 73 75 3.0 7.0 0.00 0.94 0.01 59 993.9
20210727104902 73 74 3.0 7.0 0.00 0.94 0.01 58 993.9
20210727104801 73 76 2.0 4.0 0.00 0.94 0.01 58 994.1
20210727104701 73 78 2.0 4.0 0.00 0.94 0.01 57 994.0
20210727104601 73 83 1.0 4.0 0.00 0.94 0.01 59 993.8
20210727104503 73 89 2.0 4.0 0.00 0.94 0.01 57 993.9
20210727104401 74 93 2.0 4.0 0.00 0.94 0.01 58 994.0
20210727104302 74 108 1.0 4.0 0.00 0.94 0.01 57 994.1
20210727104201 74 132 2.0 6.0 0.00 0.94 0.01 56 994.1
20210727104101 74 144 2.0 6.0 0.00 0.94 0.01 56 994.0
20210727104001 73 158 2.0 6.0 0.00 0.94 0.01 58 994.0
20210727103901 73 170 2.0 6.0 0.00 0.94 0.01 55 993.9
20210727103802 73 179 0.0 6.0 0.00 0.94 0.01 57 993.9
20210727103702 73 177 0.0 6.0 0.00 0.94 0.01 57 994.0
20210727103601 73 177 2.0 6.0 0.00 0.94 0.01 56 994.1
20210727103501 74 175 2.0 6.0 0.00 0.94 0.01 56 993.9
20210727103401 73 174 2.0 6.0 0.00 0.94 0.01 57 993.9
20210727103301 73 166 3.0 6.0 0.00 0.94 0.01 56 994.1
20210727103201 73 165 4.0 6.0 0.00 0.94 0.01 57 994.0
20210727103102 73 173 2.0 4.0 0.00 0.94 0.01 56 993.9
20210727103002 72 172 1.0 4.0 0.00 0.94 0.01 57 993.9
20210727102902 72 174 4.0 4.0 0.00 0.94 0.01 56 993.9
20210727102802 72 161 3.0 4.0 0.00 0.94 0.01 55 994.2
20210727102702 72 156 2.0 4.0 0.00 0.94 0.01 57 994.0
20210727102601 72 150 1.0 4.0 0.00 0.94 0.01 56 994.0
20210727102501 72 153 2.0 4.0 0.00 0.94 0.01 55 993.9
20210727102401 73 150 2.0 4.0 0.00 0.94 0.01 55 994.0
20210727102305 73 149 1.0 4.0 0.00 0.94 0.01 55 994.0
20210727102202 73 135 1.0 4.0 0.00 0.94 0.01 55 994.0
20210727102101 73 130 1.0 4.0 0.00 0.94 0.01 56 994.0
20210727102001 73 130 2.0 6.0 0.00 0.94 0.01 55 993.9
20210727101902 73 122 1.0 6.0 0.00 0.94 0.01 57 994.0
20210727101801 73 122 1.0 6.0 0.00 0.94 0.01 58 993.8
20210727101702 73 118 0.0 7.0 0.00 0.94 0.01 58 994.0
20210727101602 72 119 1.0 7.0 0.00 0.94 0.01 58 993.8
20210727101503 71 117 1.0 7.0 0.00 0.94 0.01 57 994.0
20210727101401 71 120 2.0 7.0 0.00 0.94 0.01 58 994.1
20210727101302 71 126 2.0 7.0 0.00 0.94 0.01 59 994.1
20210727101201 71 132 3.0 7.0 0.00 0.94 0.01 58 994.0
20210727101102 71 132 3.0 7.0 0.00 0.94 0.01 58 994.0
20210727101002 71 126 2.0 7.0 0.00 0.94 0.01 59 993.9
20210727100901 71 121 2.0 7.0 0.00 0.94 0.01 59 994.0
20210727100802 71 121 4.0 7.0 0.00 0.94 0.01 58 994.1
20210727100701 72 128 2.0 6.0 0.00 0.94 0.01 60 994.0
20210727100601 72 128 3.0 6.0 0.00 0.94 0.01 60 993.9
20210727100502 72 131 2.0 6.0 0.00 0.94 0.01 59 994.0
20210727100402 72 130 2.0 6.0 0.00 0.94 0.01 58 993.8
20210727100301 72 127 4.0 6.0 0.00 0.94 0.01 58 993.9
20210727100201 72 119 3.0 6.0 0.00 0.94 0.01 57 994.0
20210727100102 72 110 0.0 6.0 0.00 0.94 0.01 59 993.8
20210727100003 72 110 2.0 6.0 0.00 0.94 0.01 58 994.0
20210727095902 72 114 2.0 6.0 0.00 0.94 0.01 58 993.8
20210727095801 72 115 2.0 6.0 0.00 0.94 0.01 57 993.9
20210727095702 72 104 3.0 6.0 0.00 0.94 0.01 57 993.9
20210727095601 72 99 1.0 4.0 0.00 0.94 0.01 59 993.9
20210727095501 72 87 0.0 4.0 0.00 0.94 0.01 60 994.0
20210727095401 72 79 0.0 4.0 0.00 0.94 0.01 64 994.1
20210727095301 71 83 0.0 4.0 0.00 0.94 0.01 60 993.9
20210727095202 71 87 0.0 4.0 0.00 0.94 0.01 61 994.1
20210727095102 72 91 0.0 4.0 0.00 0.94 0.01 63 994.0
20210727095002 71 99 0.0 6.0 0.00 0.94 0.01 61 994.1
20210727094903 70 103 0.0 6.0 0.00 0.94 0.01 61 994.1
20210727094802 70 111 1.0 6.0 0.00 0.94 0.01 61 993.9
20210727094702 70 125 0.0 6.0 0.00 0.94 0.01 62 993.9
20210727094601 70 140 0.0 6.0 0.00 0.94 0.01 62 994.2
20210727094503 70 164 2.0 6.0 0.00 0.94 0.01 61 994.0
20210727094402 71 184 2.0 8.0 0.00 0.94 0.01 63 994.1
20210727094302 71 199 2.0 8.0 0.00 0.94 0.01 62 994.1
20210727094201 71 205 3.0 8.0 0.00 0.94 0.01 62 994.1
20210727094101 71 210 4.0 8.0 0.00 0.94 0.01 60 993.9
20210727094002 72 215 1.0 8.0 0.00 0.94 0.01 61 993.9
20210727093901 72 212 2.0 8.0 0.00 0.94 0.01 61 994.0
20210727093801 72 214 2.0 8.0 0.00 0.94 0.01 60 994.0
20210727093701 71 208 3.0 8.0 0.00 0.94 0.01 62 993.9
20210727093602 71 207 4.0 8.0 0.00 0.94 0.01 61 994.2
20210727093501 71 202 4.0 8.0 0.00 0.94 0.01 64 994.1
20210727093401 71 193 4.0 8.0 0.00 0.94 0.01 61 994.2
20210727093301 72 170 4.0 6.0 0.00 0.94 0.01 61 994.0
20210727093201 72 150 2.0 4.0 0.00 0.94 0.01 60 994.1
20210727093102 72 136 2.0 4.0 0.00 0.94 0.01 61 994.0
20210727093003 71 114 2.0 4.0 0.00 0.94 0.01 59 994.0
20210727092902 71 103 2.0 4.0 0.00 0.94 0.01 64 994.0
20210727092802 71 100 3.0 4.0 0.00 0.94 0.01 63 994.0
20210727092701 71 100 1.0 4.0 0.00 0.94 0.01 61 993.9
20210727092601 71 85 0.0 4.0 0.00 0.94 0.01 63 994.0
20210727092502 71 85 0.0 4.0 0.00 0.94 0.01 63 993.9
20210727092401 71 84 2.0 4.0 0.00 0.94 0.01 65 993.9
20210727092305 71 90 2.0 4.0 0.00 0.94 0.01 66 994.0
20210727092202 70 90 1.0 2.0 0.00 0.94 0.01 64 994.2
20210727092102 71 0 0.0 0.0 0.00 0.94 0.01 64 994.0
20210727092001 72 0 0.0 0.0 0.00 0.94 0.01 64 994.2
20210727091901 72 0 0.0 0.0 0.00 0.94 0.01 64 994.2
20210727091801 72 0 0.0 0.0 0.00 0.94 0.01 64 994.0
20210727091702 71 0 0.0 0.0 0.00 0.94 0.01 65 994.2
20210727091601 72 0 0.0 0.0 0.00 0.94 0.01 64 994.3
20210727091503 72 0 0.0 0.0 0.00 0.94 0.01 64 994.2
20210727091402 72 0 0.0 0.0 0.00 0.94 0.01 65 994.2
20210727091302 72 112 0.0 4.0 0.00 0.94 0.01 65 994.1
20210727091201 72 128 0.0 4.0 0.00 0.94 0.01 65 994.4
20210727091101 72 140 0.0 4.0 0.00 0.94 0.01 66 994.2
20210727091002 72 124 0.0 4.0 0.00 0.94 0.01 66 994.5
20210727090901 71 125 0.0 4.0 0.00 0.94 0.01 65 994.3
20210727090801 71 121 0.0 4.0 0.00 0.94 0.01 64 994.4
20210727090702 71 119 0.0 4.0 0.00 0.94 0.01 64 994.3
20210727090602 71 116 0.0 4.0 0.00 0.94 0.01 64 994.4
20210727090501 70 115 0.0 4.0 0.00 0.94 0.01 66 994.3
20210727090401 69 115 0.0 4.0 0.00 0.94 0.01 67 994.7
20210727090301 69 117 3.0 4.0 0.00 0.94 0.01 67 994.4
20210727090202 70 117 3.0 4.0 0.00 0.94 0.01 68 994.3
20210727090102 70 111 2.0 4.0 0.00 0.94 0.01 68 994.3
20210727090003 70 115 3.0 4.0 0.00 0.94 0.01 67 994.3
20210727085901 70 112 0.0 4.0 0.00 0.94 0.01 67 994.5
20210727085801 70 114 2.0 4.0 0.00 0.94 0.01 67 994.3
20210727085702 70 116 2.0 4.0 0.00 0.94 0.01 67 994.5
20210727085601 70 118 1.0 4.0 0.00 0.94 0.01 70 994.5
20210727085501 70 119 0.0 4.0 0.00 0.94 0.01 68 994.3
20210727085402 69 120 0.0 4.0 0.00 0.94 0.01 68 994.4
20210727085305 69 117 2.0 4.0 0.00 0.94 0.01 68 994.3
20210727085201 69 112 2.0 4.0 0.00 0.94 0.01 68 994.4
20210727085101 70 112 2.0 4.0 0.00 0.94 0.01 69 994.3
20210727085001 70 109 2.0 4.0 0.00 0.94 0.01 69 994.3
20210727084902 70 105 1.0 4.0 0.00 0.94 0.01 69 994.4
20210727084802 70 102 0.0 4.0 0.00 0.94 0.01 71 994.4
20210727084702 69 100 0.0 4.0 0.00 0.94 0.01 70 994.4
20210727084602 69 98 0.0 4.0 0.00 0.94 0.01 70 994.2
20210727084503 69 94 0.0 4.0 0.00 0.94 0.01 69 994.4
20210727084402 69 95 0.0 4.0 0.00 0.94 0.01 70 994.4
20210727084302 69 97 1.0 4.0 0.00 0.94 0.01 70 994.2
20210727084202 69 96 2.0 4.0 0.00 0.94 0.01 71 994.5
20210727084101 69 94 0.0 2.0 0.00 0.94 0.01 70 994.4
20210727084001 69 97 0.0 2.0 0.00 0.94 0.01 72 994.3
20210727083901 68 99 0.0 2.0 0.00 0.94 0.01 72 994.3
20210727083801 68 102 0.0 2.0 0.00 0.94 0.01 71 994.4
20210727083702 68 105 1.0 2.0 0.00 0.94 0.01 71 994.3
20210727083602 68 107 1.0 2.0 0.00 0.94 0.01 71 994.3
20210727083502 68 112 0.0 2.0 0.00 0.94 0.01 71 994.1
20210727083402 68 121 1.0 4.0 0.00 0.94 0.01 71 994.2
20210727083301 69 121 1.0 4.0 0.00 0.94 0.01 71 994.1
20210727083201 69 121 0.0 4.0 0.00 0.94 0.01 71 994.2
20210727083101 68 122 1.0 4.0 0.00 0.94 0.01 71 994.3
20210727083004 68 123 2.0 4.0 0.00 0.94 0.01 73 994.3
20210727082901 68 131 1.0 4.0 0.00 0.94 0.01 71 994.4
20210727082802 68 136 1.0 4.0 0.00 0.94 0.01 70 994.2
20210727082701 68 145 1.0 4.0 0.00 0.94 0.01 72 994.2
20210727082601 68 166 2.0 4.0 0.00 0.94 0.01 71 994.4
20210727082502 68 175 3.0 4.0 0.00 0.94 0.01 71 994.4
20210727082402 68 183 2.0 4.0 0.00 0.94 0.01 71 994.4
20210727082302 69 194 0.0 4.0 0.00 0.94 0.01 72 994.3
20210727082202 69 191 0.0 4.0 0.00 0.94 0.01 74 994.3
20210727082102 68 189 0.0 4.0 0.00 0.94 0.01 72 994.2
20210727082002 68 184 2.0 4.0 0.00 0.94 0.01 72 994.3
20210727081901 68 184 1.0 4.0 0.00 0.94 0.01 73 994.2
20210727081801 68 183 0.0 4.0 0.00 0.94 0.01 74 994.3
20210727081702 68 184 1.0 4.0 0.00 0.94 0.01 73 994.3
20210727081602 68 172 1.0 4.0 0.00 0.94 0.01 73 994.2
20210727081504 68 167 1.0 4.0 0.00 0.94 0.01 73 994.3
20210727081401 68 163 0.0 4.0 0.00 0.94 0.01 74 994.3
20210727081302 67 161 2.0 4.0 0.00 0.94 0.01 72 994.3
20210727081201 67 159 0.0 4.0 0.00 0.94 0.01 73 994.3
20210727081102 68 167 2.0 4.0 0.00 0.94 0.01 73 994.4
20210727081001 68 172 1.0 4.0 0.00 0.94 0.01 73 994.2
20210727080902 68 177 2.0 4.0 0.00 0.94 0.01 73 994.4
20210727080801 69 183 1.0 4.0 0.00 0.94 0.01 73 994.5
20210727080702 68 177 1.0 4.0 0.00 0.94 0.01 72 994.3
20210727080602 68 173 2.0 4.0 0.00 0.94 0.01 73 994.4
20210727080502 68 177 1.0 4.0 0.00 0.94 0.01 73 994.4
20210727080401 69 187 2.0 4.0 0.00 0.94 0.01 71 994.4
20210727080302 69 206 1.0 2.0 0.00 0.94 0.01 72 994.5
20210727080201 69 225 1.0 2.0 0.00 0.94 0.01 73 994.4
20210727080102 69 225 2.0 2.0 0.00 0.94 0.01 71 994.3
20210727080003 69 0 0.0 0.0 0.00 0.94 0.01 74 994.3
20210727075901 69 0 0.0 0.0 0.00 0.94 0.01 74 994.2
20210727075801 69 0 0.0 0.0 0.00 0.94 0.01 73 994.3
20210727075702 69 194 0.0 4.0 0.00 0.94 0.01 72 994.2
20210727075601 68 185 0.0 4.0 0.00 0.94 0.01 73 994.3
20210727075501 68 178 0.0 4.0 0.00 0.94 0.01 74 994.4
20210727075401 68 169 0.0 4.0 0.00 0.94 0.01 73 994.2
20210727075305 68 164 0.0 4.0 0.00 0.94 0.01 72 994.4
20210727075202 68 157 0.0 4.0 0.00 0.94 0.01 74 994.3
20210727075102 68 148 0.0 4.0 0.00 0.94 0.01 73 994.4
20210727075001 68 135 0.0 4.0 0.00 0.94 0.01 74 994.3
20210727074902 69 134 0.0 4.0 0.00 0.94 0.01 75 994.5
20210727074801 67 130 0.0 4.0 0.00 0.94 0.01 75 994.5
20210727074702 67 127 3.0 4.0 0.00 0.94 0.01 75 994.3
20210727074602 67 119 3.0 4.0 0.00 0.94 0.01 75 994.1
20210727074504 67 110 2.0 4.0 0.00 0.94 0.01 75 994.3
20210727074402 66 107 1.0 4.0 0.00 0.94 0.01 73 994.3
20210727074301 66 105 2.0 4.0 0.00 0.94 0.01 74 994.3
20210727074201 66 103 2.0 4.0 0.00 0.94 0.01 75 994.4
20210727074101 66 104 2.0 4.0 0.00 0.94 0.01 74 994.2
20210727074002 66 112 2.0 4.0 0.00 0.94 0.01 74 994.3
20210727073902 66 107 2.0 4.0 0.00 0.94 0.01 75 994.3
20210727073802 67 107 2.0 4.0 0.00 0.94 0.01 75 994.4
20210727073702 67 100 2.0 4.0 0.00 0.94 0.01 75 994.3
20210727073601 67 87 2.0 4.0 0.00 0.94 0.01 75 994.6
20210727073502 67 112 0.0 2.0 0.00 0.94 0.01 74 994.3
20210727073402 67 112 0.0 2.0 0.00 0.94 0.01 75 994.1
20210727073301 67 112 0.0 2.0 0.00 0.94 0.01 75 994.3
20210727073202 67 0 0.0 0.0 0.00 0.94 0.01 77 994.2
20210727073101 66 0 0.0 0.0 0.00 0.94 0.01 76 994.3
20210727073003 67 0 0.0 0.0 0.00 0.94 0.01 75 994.4
20210727072901 67 0 0.0 0.0 0.00 0.94 0.01 75 994.4
20210727072801 67 0 0.0 0.0 0.00 0.94 0.01 78 994.4
20210727072702 67 0 0.0 0.0 0.00 0.94 0.01 79 994.3
20210727072602 66 0 0.0 0.0 0.00 0.94 0.01 79 994.2
20210727072502 66 0 0.0 0.0 0.00 0.94 0.01 80 994.5
20210727072402 65 0 0.0 0.0 0.00 0.94 0.01 79 994.6
20210727072304 66 0 0.0 0.0 0.00 0.94 0.01 79 994.1
20210727072202 66 0 0.0 0.0 0.00 0.94 0.01 78 994.4
20210727072102 66 0 0.0 0.0 0.00 0.94 0.01 80 994.2
20210727072002 67 0 0.0 0.0 0.00 0.94 0.01 78 994.3
20210727071902 67 0 0.0 0.0 0.00 0.94 0.01 78 994.2
20210727071801 67 0 0.0 0.0 0.00 0.94 0.01 81 994.3
20210727071702 66 0 0.0 0.0 0.00 0.94 0.01 82 994.3
20210727071601 65 0 0.0 0.0 0.00 0.94 0.01 81 994.2
20210727071503 65 0 0.0 0.0 0.00 0.94 0.01 81 994.2
20210727071401 65 0 0.0 0.0 0.00 0.94 0.01 80 994.2
20210727071302 65 0 0.0 0.0 0.00 0.94 0.01 81 994.4
20210727071202 65 0 0.0 0.0 0.00 0.94 0.01 80 994.3
20210727071102 65 0 0.0 0.0 0.00 0.94 0.01 80 994.3
20210727071001 66 0 0.0 0.0 0.00 0.94 0.01 79 994.2
20210727070901 66 0 0.0 0.0 0.00 0.94 0.01 79 994.4
20210727070802 65 0 0.0 0.0 0.00 0.94 0.01 79 994.3
20210727070702 65 0 0.0 0.0 0.00 0.94 0.01 81 994.3
20210727070602 65 0 0.0 0.0 0.00 0.94 0.01 82 994.3
20210727070502 64 0 0.0 0.0 0.00 0.94 0.01 82 994.3
20210727070402 64 0 0.0 0.0 0.00 0.94 0.01 82 994.3
20210727070302 64 0 0.0 0.0 0.00 0.94 0.01 82 994.5
20210727070202 64 0 0.0 0.0 0.00 0.94 0.01 83 994.2
20210727070102 64 0 0.0 0.0 0.00 0.94 0.01 83 994.3
20210727070003 64 0 0.0 0.0 0.00 0.94 0.01 83 994.3
20210727065901 64 0 0.0 0.0 0.00 0.94 0.01 83 994.2
20210727065802 64 0 0.0 0.0 0.00 0.94 0.01 83 994.2
20210727065702 64 0 0.0 0.0 0.00 0.94 0.01 83 994.1
20210727065602 63 0 0.0 0.0 0.00 0.94 0.01 84 994.3
20210727065503 63 112 0.0 2.0 0.00 0.94 0.01 84 994.1
20210727065401 63 112 0.0 2.0 0.00 0.94 0.01 84 994.2
20210727065301 63 112 0.0 2.0 0.00 0.94 0.01 84 994.1
20210727065202 63 112 0.0 2.0 0.00 0.94 0.01 85 994.0
20210727065101 63 112 0.0 2.0 0.00 0.94 0.01 85 994.3
20210727065002 63 112 0.0 2.0 0.00 0.94 0.01 84 994.0
20210727064901 63 112 0.0 2.0 0.00 0.94 0.01 85 994.1
20210727064801 63 111 0.0 2.0 0.00 0.94 0.01 84 994.1
20210727064702 63 111 0.0 2.0 0.00 0.94 0.01 84 994.1
20210727064602 63 111 0.0 2.0 0.00 0.94 0.01 84 994.2
20210727064503 63 111 0.0 2.0 0.00 0.94 0.01 83 994.1
20210727064402 63 111 0.0 2.0 0.00 0.94 0.01 84 994.0
20210727064303 63 111 0.0 2.0 0.00 0.94 0.01 84 994.0
20210727064203 63 111 1.0 2.0 0.00 0.94 0.01 84 994.0
20210727064103 63 111 0.0 2.0 0.00 0.94 0.01 84 994.1
20210727064002 63 111 1.0 2.0 0.00 0.94 0.01 84 994.0
20210727063902 63 117 1.0 2.0 0.00 0.94 0.01 84 994.2
20210727063801 63 132 1.0 4.0 0.00 0.94 0.01 84 994.2
20210727063701 64 142 0.0 4.0 0.00 0.94 0.01 85 994.1
20210727063602 63 145 1.0 4.0 0.00 0.94 0.01 85 993.9
20210727063502 63 158 1.0 4.0 0.00 0.94 0.01 84 994.1
20210727063401 63 172 1.0 4.0 0.00 0.94 0.01 85 994.0
20210727063301 63 194 0.0 4.0 0.00 0.94 0.01 85 994.2
20210727063202 63 199 0.0 4.0 0.00 0.94 0.01 85 994.2
20210727063102 63 214 2.0 4.0 0.00 0.94 0.01 84 994.2
20210727063003 63 228 2.0 4.0 0.00 0.94 0.01 85 994.0
20210727062901 63 235 2.0 4.0 0.00 0.94 0.01 85 994.1
20210727062802 63 242 2.0 4.0 0.00 0.94 0.01 85 994.3
20210727062701 63 248 0.0 4.0 0.00 0.94 0.01 85 994.2
20210727062601 63 248 0.0 4.0 0.00 0.94 0.01 84 994.0
20210727062502 63 248 0.0 4.0 0.00 0.94 0.01 84 994.1
20210727062402 63 248 0.0 4.0 0.00 0.94 0.01 84 994.1
20210727062301 63 248 0.0 4.0 0.00 0.94 0.01 83 994.1
20210727062202 63 248 1.0 4.0 0.00 0.94 0.01 85 994.0
20210727062102 63 248 2.0 4.0 0.00 0.94 0.01 83 994.2
20210727062001 63 0 0.0 0.0 0.00 0.94 0.01 83 994.2
20210727061902 63 0 0.0 0.0 0.00 0.94 0.01 84 994.1
20210727061801 63 0 0.0 0.0 0.00 0.94 0.01 84 994.3
20210727061602 63 0 0.0 0.0 0.00 0.94 0.01 84 994.1
20210727061503 64 0 0.0 0.0 0.00 0.94 0.01 84 994.1
20210727061402 64 0 0.0 0.0 0.00 0.94 0.01 83 994.1
20210727061302 64 0 0.0 0.0 0.00 0.94 0.01 85 994.0
20210727061201 64 0 0.0 0.0 0.00 0.94 0.01 85 993.9
20210727061102 63 0 0.0 0.0 0.00 0.94 0.01 84 993.8
20210727061001 63 0 0.0 0.0 0.00 0.94 0.01 84 994.0
20210727060901 63 0 0.0 0.0 0.00 0.94 0.01 85 994.0
20210727060802 63 0 0.0 0.0 0.00 0.94 0.01 85 993.9
20210727060702 63 0 0.0 0.0 0.00 0.94 0.01 85 994.0
20210727060602 63 0 0.0 0.0 0.00 0.94 0.01 86 993.9
20210727060501 63 0 0.0 0.0 0.00 0.94 0.01 86 994.0
20210727060402 63 0 0.0 0.0 0.00 0.94 0.01 86 994.1
20210727060301 63 0 0.0 0.0 0.00 0.94 0.01 86 993.9
20210727060202 63 0 0.0 0.0 0.00 0.94 0.01 85 993.9
20210727060102 63 0 0.0 0.0 0.00 0.94 0.01 86 993.8
20210727055902 63 0 0.0 0.0 0.00 0.94 0.01 86 994.2
20210727055801 62 0 0.0 0.0 0.00 0.94 0.01 87 993.9
20210727055702 62 0 0.0 0.0 0.00 0.94 0.01 86 994.0
20210727055602 62 0 0.0 0.0 0.00 0.94 0.01 86 994.1
20210727055502 62 0 0.0 0.0 0.00 0.94 0.01 87 994.1
20210727055401 62 0 0.0 0.0 0.00 0.94 0.01 86 994.0
20210727055301 62 0 0.0 0.0 0.00 0.94 0.01 86 994.0
20210727055202 62 0 0.0 0.0 0.00 0.94 0.01 87 994.0
20210727055103 62 0 0.0 0.0 0.00 0.94 0.01 87 993.9
20210727055002 62 0 0.0 0.0 0.00 0.94 0.01 87 994.1
20210727054903 62 0 0.0 0.0 0.00 0.94 0.01 88 994.1
20210727054801 62 0 0.0 0.0 0.00 0.94 0.01 88 994.1
20210727054701 61 0 0.0 0.0 0.00 0.94 0.01 88 994.0
20210727054601 61 0 0.0 0.0 0.00 0.94 0.01 88 994.1
20210727054503 61 0 0.0 0.0 0.00 0.94 0.01 87 994.1
20210727054401 61 0 0.0 0.0 0.00 0.94 0.01 87 994.2
20210727054302 61 0 0.0 0.0 0.00 0.94 0.01 87 994.3
20210727054207 61 0 0.0 0.0 0.00 0.94 0.01 87 994.3
20210727054101 61 0 0.0 0.0 0.00 0.94 0.01 88 994.2
20210727054001 61 0 0.0 0.0 0.00 0.94 0.01 89 994.2
20210727053901 61 0 0.0 0.0 0.00 0.94 0.01 88 994.1
20210727053802 61 0 0.0 0.0 0.00 0.94 0.01 88 994.3
20210727053702 62 0 0.0 0.0 0.00 0.94 0.01 88 994.2
20210727053602 62 0 0.0 0.0 0.00 0.94 0.01 89 994.5
20210727053503 62 0 0.0 0.0 0.00 0.94 0.01 89 994.3
20210727053403 62 0 0.0 0.0 0.00 0.94 0.01 89 994.3
20210727053302 61 0 0.0 0.0 0.00 0.94 0.01 88 994.2
20210727053204 61 0 0.0 0.0 0.00 0.94 0.01 88 994.2
20210727053102 61 0 0.0 0.0 0.00 0.94 0.01 89 994.4
20210727053003 61 0 0.0 0.0 0.00 0.94 0.01 89 994.2
20210727052902 61 0 0.0 0.0 0.00 0.94 0.01 89 994.2
20210727052802 61 0 0.0 0.0 0.00 0.94 0.01 89 994.3
20210727052701 61 0 0.0 0.0 0.00 0.94 0.01 89 994.0
20210727052601 60 0 0.0 0.0 0.00 0.94 0.01 89 994.0
20210727052502 61 0 0.0 0.0 0.00 0.94 0.01 90 994.3
20210727052402 61 0 0.0 0.0 0.00 0.94 0.01 90 994.3
20210727052305 61 0 0.0 0.0 0.00 0.94 0.01 91 994.2
20210727052202 61 0 0.0 0.0 0.00 0.94 0.01 91 994.3
20210727052102 61 0 0.0 0.0 0.00 0.94 0.01 91 994.1
20210727052001 61 0 0.0 0.0 0.00 0.94 0.01 92 994.3
20210727051901 61 0 0.0 0.0 0.00 0.94 0.01 92 994.2
20210727051802 60 0 0.0 0.0 0.00 0.94 0.01 91 994.2
20210727051702 59 0 0.0 0.0 0.00 0.94 0.01 91 994.2
20210727051602 59 0 0.0 0.0 0.00 0.94 0.01 91 993.9
20210727051504 59 0 0.0 0.0 0.00 0.94 0.01 92 994.2
20210727051401 59 0 0.0 0.0 0.00 0.94 0.01 92 994.0
20210727051305 59 0 0.0 0.0 0.00 0.94 0.01 92 994.2
20210727051202 59 0 0.0 0.0 0.00 0.94 0.01 92 994.3
20210727051102 59 0 0.0 0.0 0.00 0.94 0.01 92 994.2
20210727051001 59 0 0.0 0.0 0.00 0.94 0.01 92 994.2
20210727050902 59 0 0.0 0.0 0.00 0.94 0.01 92 994.2
20210727050802 59 0 0.0 0.0 0.00 0.94 0.01 93 994.1
20210727050701 59 0 0.0 0.0 0.00 0.94 0.01 93 994.2
20210727050602 59 0 0.0 0.0 0.00 0.94 0.01 93 994.3
20210727050502 58 0 0.0 0.0 0.00 0.94 0.01 93 994.2
20210727050402 59 0 0.0 0.0 0.00 0.94 0.01 93 994.1
20210727050301 59 0 0.0 0.0 0.00 0.94 0.01 94 994.3
20210727050201 59 0 0.0 0.0 0.00 0.94 0.01 94 994.2
20210727050102 59 0 0.0 0.0 0.00 0.94 0.01 94 994.3
20210727050003 59 0 0.0 0.0 0.00 0.94 0.01 94 994.3
20210727045902 59 0 0.0 0.0 0.00 0.94 0.01 94 994.3
20210727045802 59 0 0.0 0.0 0.00 0.94 0.01 95 994.3
20210727045701 59 0 0.0 0.0 0.00 0.94 0.01 95 994.2
20210727045601 59 0 0.0 0.0 0.00 0.94 0.01 95 994.3
20210727045502 59 0 0.0 0.0 0.00 0.94 0.01 95 994.3
20210727045402 59 0 0.0 0.0 0.00 0.94 0.01 95 994.3
20210727045302 59 0 0.0 0.0 0.00 0.94 0.01 95 994.2
20210727045201 58 0 0.0 0.0 0.00 0.94 0.01 95 994.6
20210727045101 58 0 0.0 0.0 0.00 0.94 0.01 95 994.3
20210727045002 58 0 0.0 0.0 0.00 0.94 0.01 95 994.5
20210727044902 58 0 0.0 0.0 0.00 0.94 0.01 95 994.4
20210727044801 58 0 0.0 0.0 0.00 0.94 0.01 96 994.5
20210727044702 58 0 0.0 0.0 0.00 0.94 0.01 96 994.4
20210727044602 58 0 0.0 0.0 0.00 0.94 0.01 96 994.4
20210727044504 58 0 0.0 0.0 0.00 0.94 0.01 96 994.4
20210727044402 58 0 0.0 0.0 0.00 0.94 0.01 96 994.3
20210727044302 58 0 0.0 0.0 0.00 0.94 0.01 96 994.5
20210727044201 58 0 0.0 0.0 0.00 0.94 0.01 96 994.5
20210727044101 58 0 0.0 0.0 0.00 0.94 0.01 96 994.5
20210727044001 58 0 0.0 0.0 0.00 0.94 0.01 96 994.4
20210727043902 57 0 0.0 0.0 0.00 0.94 0.01 96 994.4
20210727043802 57 0 0.0 0.0 0.00 0.94 0.01 96 994.3
20210727043701 57 0 0.0 0.0 0.00 0.94 0.01 96 994.6
20210727043602 57 0 0.0 0.0 0.00 0.94 0.01 96 994.3
20210727043502 57 0 0.0 0.0 0.00 0.94 0.01 96 994.3
20210727043402 57 0 0.0 0.0 0.00 0.94 0.01 96 994.3
20210727043301 56 0 0.0 0.0 0.00 0.94 0.01 96 994.4
20210727043203 56 0 0.0 0.0 0.00 0.94 0.01 95 994.4
20210727043102 56 0 0.0 0.0 0.00 0.94 0.01 95 994.4
20210727043003 57 0 0.0 0.0 0.00 0.94 0.01 95 994.5
20210727042902 57 0 0.0 0.0 0.00 0.94 0.01 95 994.2
20210727042802 57 0 0.0 0.0 0.00 0.94 0.01 96 994.6
20210727042711 57 0 0.0 0.0 0.00 0.94 0.01 95 994.3
20210727042601 57 0 0.0 0.0 0.00 0.94 0.01 95 994.4
20210727042502 57 0 0.0 0.0 0.00 0.94 0.01 95 994.3
20210727042405 57 0 0.0 0.0 0.00 0.94 0.01 95 994.5
20210727042305 57 0 0.0 0.0 0.00 0.94 0.01 95 994.4
20210727042202 57 0 0.0 0.0 0.00 0.94 0.01 95 994.4
20210727042102 57 0 0.0 0.0 0.00 0.94 0.01 96 994.5
20210727042002 57 0 0.0 0.0 0.00 0.94 0.01 96 994.7
20210727041901 57 0 0.0 0.0 0.00 0.94 0.01 96 994.4
20210727041801 57 0 0.0 0.0 0.00 0.94 0.01 96 994.5
20210727041702 57 0 0.0 0.0 0.00 0.94 0.01 95 994.5
20210727041602 57 0 0.0 0.0 0.00 0.94 0.01 95 994.4
20210727041504 57 0 0.0 0.0 0.00 0.94 0.01 95 994.4
20210727041402 57 0 0.0 0.0 0.00 0.94 0.01 95 994.5
20210727041302 57 0 0.0 0.0 0.00 0.94 0.01 95 994.4
20210727041204 57 0 0.0 0.0 0.00 0.94 0.01 95 994.6
20210727041102 57 0 0.0 0.0 0.00 0.94 0.01 95 994.5
20210727041002 57 0 0.0 0.0 0.00 0.94 0.01 95 994.5
20210727040901 57 0 0.0 0.0 0.00 0.94 0.01 95 994.6
20210727040801 57 0 0.0 0.0 0.00 0.94 0.01 95 994.3
20210727040701 57 0 0.0 0.0 0.00 0.94 0.01 95 994.4
20210727040602 57 0 0.0 0.0 0.00 0.94 0.01 95 994.6
20210727040502 57 0 0.0 0.0 0.00 0.94 0.01 95 994.6
20210727040402 57 0 0.0 0.0 0.00 0.94 0.01 95 994.3
20210727040302 57 0 0.0 0.0 0.00 0.94 0.01 95 994.5
20210727040201 57 0 0.0 0.0 0.00 0.94 0.01 95 994.7
20210727040101 57 0 0.0 0.0 0.00 0.94 0.01 95 994.3
20210727040003 57 0 0.0 0.0 0.00 0.94 0.01 95 994.3
20210727035902 57 0 0.0 0.0 0.00 0.94 0.01 95 994.5
20210727035802 57 0 0.0 0.0 0.00 0.94 0.01 95 994.6
20210727035701 57 0 0.0 0.0 0.00 0.94 0.01 95 994.5
20210727035601 57 0 0.0 0.0 0.00 0.94 0.01 95 994.6
20210727035501 57 0 0.0 0.0 0.00 0.94 0.01 95 994.4
20210727035402 57 0 0.0 0.0 0.00 0.94 0.01 95 994.5
20210727035305 57 0 0.0 0.0 0.00 0.94 0.01 95 994.4
20210727035202 57 0 0.0 0.0 0.00 0.94 0.01 95 994.5
20210727035101 57 0 0.0 0.0 0.00 0.94 0.01 95 994.7
20210727035001 57 0 0.0 0.0 0.00 0.94 0.01 95 994.7
20210727034902 57 0 0.0 0.0 0.00 0.94 0.01 95 994.6
20210727034802 57 0 0.0 0.0 0.00 0.94 0.01 95 994.5
20210727034701 57 0 0.0 0.0 0.00 0.94 0.01 95 994.7
20210727034601 57 0 0.0 0.0 0.00 0.94 0.01 95 994.6
20210727034503 57 0 0.0 0.0 0.00 0.94 0.01 95 994.6
20210727034401 57 0 0.0 0.0 0.00 0.94 0.01 95 994.7
20210727034302 57 0 0.0 0.0 0.00 0.94 0.01 95 994.6
20210727034202 57 0 0.0 0.0 0.00 0.94 0.01 95 994.4
20210727034102 57 0 0.0 0.0 0.00 0.94 0.01 95 994.4
20210727034001 57 0 0.0 0.0 0.00 0.94 0.01 95 994.5
20210727033901 57 0 0.0 0.0 0.00 0.94 0.01 95 994.4
20210727033802 57 0 0.0 0.0 0.00 0.94 0.01 95 994.5
20210727033702 57 0 0.0 0.0 0.00 0.94 0.01 95 994.6
20210727033601 57 0 0.0 0.0 0.00 0.94 0.01 95 994.5
20210727033501 57 0 0.0 0.0 0.00 0.94 0.01 95 994.6
20210727033402 57 0 0.0 0.0 0.00 0.94 0.01 95 994.3
20210727033302 57 0 0.0 0.0 0.00 0.94 0.01 95 994.6
20210727033202 57 0 0.0 0.0 0.00 0.94 0.01 95 994.4
20210727033102 57 0 0.0 0.0 0.00 0.94 0.01 95 994.7
20210727033003 57 0 0.0 0.0 0.00 0.94 0.01 95 994.4
20210727032902 57 0 0.0 0.0 0.00 0.94 0.01 95 994.6
20210727032801 58 0 0.0 0.0 0.00 0.94 0.01 95 994.3
20210727032702 58 0 0.0 0.0 0.00 0.94 0.01 95 994.3
20210727032602 58 0 0.0 0.0 0.00 0.94 0.01 95 994.4
20210727032501 58 0 0.0 0.0 0.00 0.94 0.01 95 994.5
20210727032401 58 0 0.0 0.0 0.00 0.94 0.01 95 994.5
20210727032301 58 0 0.0 0.0 0.00 0.94 0.01 95 994.5
20210727032202 58 0 0.0 0.0 0.00 0.94 0.01 95 994.8
20210727032102 58 0 0.0 0.0 0.00 0.94 0.01 95 994.7
20210727032002 58 0 0.0 0.0 0.00 0.94 0.01 95 994.5
20210727031901 58 0 0.0 0.0 0.00 0.94 0.01 95 994.5
20210727031802 58 0 0.0 0.0 0.00 0.94 0.01 95 994.5
20210727031702 58 0 0.0 0.0 0.00 0.94 0.01 95 994.6
20210727031602 58 0 0.0 0.0 0.00 0.94 0.01 95 994.5
20210727031503 58 0 0.0 0.0 0.00 0.94 0.01 95 994.3
20210727031402 58 0 0.0 0.0 0.00 0.94 0.01 95 994.5
20210727031301 58 0 0.0 0.0 0.00 0.94 0.01 95 994.4
20210727031202 58 0 0.0 0.0 0.00 0.94 0.01 95 994.4
20210727031102 58 0 0.0 0.0 0.00 0.94 0.01 96 994.4
20210727031002 58 0 0.0 0.0 0.00 0.94 0.01 96 994.6
20210727030901 58 0 0.0 0.0 0.00 0.94 0.01 96 994.3
20210727030801 58 0 0.0 0.0 0.00 0.94 0.01 96 994.4
20210727030702 58 0 0.0 0.0 0.00 0.94 0.01 96 994.3
20210727030602 58 0 0.0 0.0 0.00 0.94 0.01 96 994.5
20210727030502 58 0 0.0 0.0 0.00 0.94 0.01 96 994.2
20210727030401 57 0 0.0 0.0 0.00 0.94 0.01 96 994.4
20210727030302 57 0 0.0 0.0 0.00 0.94 0.01 96 994.4
20210727030202 57 0 0.0 0.0 0.01 0.94 0.01 96 994.4
20210727030102 58 0 0.0 0.0 0.01 0.94 0.01 96 994.4
20210727030003 58 0 0.0 0.0 0.01 0.94 0.01 96 994.2
20210727025901 58 0 0.0 0.0 0.01 0.94 0.01 96 994.3
20210727025802 58 0 0.0 0.0 0.01 0.94 0.01 96 994.3
20210727025702 58 0 0.0 0.0 0.01 0.94 0.01 96 994.0
20210727025602 58 0 0.0 0.0 0.01 0.94 0.01 96 994.3
20210727025502 58 0 0.0 0.0 0.01 0.94 0.01 96 994.3
20210727025402 58 0 0.0 0.0 0.01 0.94 0.01 96 994.5
20210727025305 58 0 0.0 0.0 0.01 0.94 0.01 96 994.6
20210727025202 58 0 0.0 0.0 0.01 0.94 0.01 96 994.5
20210727025102 58 0 0.0 0.0 0.01 0.94 0.01 96 994.3
20210727025001 58 0 0.0 0.0 0.01 0.94 0.01 96 994.5
20210727024902 58 0 0.0 0.0 0.01 0.94 0.01 96 994.4
20210727024802 58 0 0.0 0.0 0.01 0.94 0.01 96 994.3
20210727024702 58 0 0.0 0.0 0.01 0.94 0.01 96 994.4
20210727024601 57 0 0.0 0.0 0.01 0.94 0.01 96 994.3
20210727024503 57 0 0.0 0.0 0.01 0.94 0.01 96 994.2
20210727024401 57 0 0.0 0.0 0.01 0.94 0.01 96 994.4
20210727024301 57 0 0.0 0.0 0.01 0.94 0.01 96 994.6
20210727024202 57 0 0.0 0.0 0.01 0.94 0.01 96 994.2
20210727024102 57 0 0.0 0.0 0.01 0.94 0.01 96 994.4
20210727024002 57 0 0.0 0.0 0.01 0.94 0.01 96 994.6
20210727023901 57 0 0.0 0.0 0.01 0.94 0.01 96 994.6
20210727023802 57 0 0.0 0.0 0.01 0.94 0.01 96 994.3
20210727023702 57 314 0.0 2.0 0.01 0.94 0.01 96 994.6
20210727023602 57 314 0.0 2.0 0.01 0.94 0.01 96 994.7
20210727023501 57 314 0.0 2.0 0.01 0.94 0.01 96 994.7
20210727023402 57 314 0.0 2.0 0.01 0.94 0.01 96 994.6
20210727023302 57 314 0.0 2.0 0.01 0.94 0.01 96 994.6
20210727023202 57 314 0.0 2.0 0.01 0.94 0.01 96 994.6
20210727023101 57 314 0.0 2.0 0.01 0.94 0.01 96 994.5
20210727023003 57 314 0.0 2.0 0.01 0.94 0.01 96 994.4
20210727022901 57 314 0.0 2.0 0.01 0.94 0.01 96 994.4
20210727022801 57 314 1.0 2.0 0.01 0.94 0.01 96 994.7
20210727022702 57 314 1.0 2.0 0.01 0.94 0.01 96 994.6
20210727022602 57 314 0.0 2.0 0.01 0.94 0.01 96 994.4
20210727022502 57 314 2.0 2.0 0.01 0.94 0.01 96 994.3
20210727022401 57 314 1.0 2.0 0.01 0.94 0.01 96 994.6
20210727022301 57 314 1.0 2.0 0.01 0.94 0.01 96 994.5
20210727022202 57 314 1.0 2.0 0.01 0.94 0.01 96 994.6
20210727022102 57 0 0.0 0.0 0.01 0.94 0.01 96 994.4
20210727022002 57 0 0.0 0.0 0.01 0.94 0.01 96 994.6
20210727021902 57 0 0.0 0.0 0.01 0.94 0.01 96 994.4
20210727021802 57 0 0.0 0.0 0.01 0.94 0.01 96 994.6
20210727021702 57 0 0.0 0.0 0.01 0.94 0.01 96 994.5
20210727021602 57 0 0.0 0.0 0.01 0.94 0.01 96 994.4
20210727021503 57 0 0.0 0.0 0.01 0.94 0.01 96 994.4
20210727021402 57 0 0.0 0.0 0.01 0.94 0.01 96 994.7
20210727021302 57 0 0.0 0.0 0.01 0.94 0.01 96 994.5
20210727021202 57 0 0.0 0.0 0.01 0.94 0.01 96 994.6
20210727021102 57 0 0.0 0.0 0.01 0.94 0.01 96 994.4
20210727021002 57 0 0.0 0.0 0.01 0.94 0.01 96 994.3
20210727020902 57 0 0.0 0.0 0.01 0.94 0.01 96 994.4
20210727020802 57 0 0.0 0.0 0.01 0.94 0.01 96 994.5
20210727020702 57 0 0.0 0.0 0.01 0.94 0.01 96 994.4
20210727020602 57 0 0.0 0.0 0.01 0.94 0.01 96 994.3
20210727020502 57 0 0.0 0.0 0.01 0.94 0.01 96 994.4
20210727020401 57 0 0.0 0.0 0.01 0.94 0.01 96 994.6
20210727020302 57 0 0.0 0.0 0.00 0.93 0.00 96 994.4
20210727020202 57 0 0.0 0.0 0.00 0.93 0.00 96 994.3
20210727020102 57 0 0.0 0.0 0.00 0.93 0.00 96 994.4
20210727020003 57 0 0.0 0.0 0.00 0.93 0.00 96 994.3
20210727015902 58 0 0.0 0.0 0.00 0.93 0.00 96 994.3
20210727015801 57 0 0.0 0.0 0.00 0.93 0.00 96 994.5
20210727015702 57 0 0.0 0.0 0.00 0.93 0.00 96 994.1
20210727015602 57 0 0.0 0.0 0.00 0.93 0.00 96 994.6
20210727015502 57 0 0.0 0.0 0.00 0.93 0.00 96 994.6
20210727015402 57 0 0.0 0.0 0.00 0.93 0.00 96 994.4
20210727015301 57 0 0.0 0.0 0.00 0.93 0.00 96 994.5
20210727015202 57 0 0.0 0.0 0.00 0.93 0.00 96 994.3
20210727015102 57 0 0.0 0.0 0.00 0.93 0.00 96 994.6
20210727015002 57 0 0.0 0.0 0.00 0.93 0.00 96 994.5
20210727014901 57 0 0.0 0.0 0.00 0.93 0.00 96 994.5
20210727014802 57 0 0.0 0.0 0.00 0.93 0.00 96 994.6
20210727014702 57 0 0.0 0.0 0.00 0.93 0.00 96 994.7
20210727014602 57 0 0.0 0.0 0.00 0.93 0.00 96 994.7
20210727014504 57 0 0.0 0.0 0.00 0.93 0.00 96 994.6
20210727014402 57 0 0.0 0.0 0.00 0.93 0.00 96 994.5
20210727014302 57 0 0.0 0.0 0.00 0.93 0.00 96 994.4
20210727014201 57 0 0.0 0.0 0.00 0.93 0.00 96 994.4
20210727014102 57 0 0.0 0.0 0.00 0.93 0.00 96 994.6
20210727014002 57 0 0.0 0.0 0.00 0.93 0.00 96 994.4
20210727013902 57 0 0.0 0.0 0.00 0.93 0.00 96 994.3
20210727013801 57 0 0.0 0.0 0.00 0.93 0.00 96 994.4
20210727013702 57 0 0.0 0.0 0.00 0.93 0.00 96 994.4
20210727013602 57 0 0.0 0.0 0.00 0.93 0.00 95 994.2
20210727013502 57 0 0.0 0.0 0.00 0.93 0.00 95 994.2
20210727013401 57 0 0.0 0.0 0.00 0.93 0.00 95 994.1
20210727013302 57 0 0.0 0.0 0.00 0.93 0.00 95 993.9
20210727013202 58 0 0.0 0.0 0.00 0.93 0.00 96 994.1
20210727013102 58 0 0.0 0.0 0.00 0.93 0.00 95 994.2
20210727013004 58 0 0.0 0.0 0.00 0.93 0.00 95 994.0
20210727012902 58 0 0.0 0.0 0.00 0.93 0.00 95 994.2
20210727012802 58 0 0.0 0.0 0.00 0.93 0.00 95 994.3
20210727012702 58 0 0.0 0.0 0.00 0.93 0.00 95 994.0
20210727012601 58 0 0.0 0.0 0.00 0.93 0.00 95 994.1
20210727012502 58 0 0.0 0.0 0.00 0.93 0.00 95 994.1
20210727012402 58 0 0.0 0.0 0.00 0.93 0.00 95 994.3
20210727012304 58 0 0.0 0.0 0.00 0.93 0.00 95 994.1
20210727012202 58 0 0.0 0.0 0.00 0.93 0.00 95 994.0
20210727012101 58 0 0.0 0.0 0.00 0.93 0.00 95 994.3
20210727012002 58 0 0.0 0.0 0.00 0.93 0.00 95 994.2
20210727011902 58 0 0.0 0.0 0.00 0.93 0.00 95 994.1
20210727011802 58 0 0.0 0.0 0.00 0.93 0.00 95 994.1
20210727011701 58 0 0.0 0.0 0.00 0.93 0.00 95 994.1
20210727011602 58 0 0.0 0.0 0.00 0.93 0.00 95 994.0
20210727011503 58 0 0.0 0.0 0.00 0.93 0.00 95 994.3
20210727011401 58 0 0.0 0.0 0.00 0.93 0.00 95 994.1
20210727011302 58 0 0.0 0.0 0.00 0.93 0.00 95 994.0
20210727011202 58 0 0.0 0.0 0.00 0.93 0.00 95 994.1
20210727011102 58 0 0.0 0.0 0.00 0.93 0.00 95 994.2
20210727011002 58 0 0.0 0.0 0.00 0.93 0.00 95 994.0
20210727010902 58 0 0.0 0.0 0.00 0.93 0.00 95 994.2
20210727010802 58 0 0.0 0.0 0.00 0.93 0.00 95 994.2
20210727010702 58 0 0.0 0.0 0.00 0.93 0.00 95 994.1
20210727010601 58 0 0.0 0.0 0.00 0.93 0.00 95 993.8
20210727010502 58 0 0.0 0.0 0.00 0.93 0.00 95 994.0
20210727010402 58 0 0.0 0.0 0.00 0.93 0.00 95 994.1
20210727010302 58 0 0.0 0.0 0.00 0.93 0.00 95 994.1
20210727010202 58 0 0.0 0.0 0.00 0.93 0.00 95 994.1
20210727010101 58 0 0.0 0.0 0.00 0.93 0.00 95 994.3
20210727010003 58 0 0.0 0.0 0.00 0.93 0.00 95 994.3
20210727005902 58 0 0.0 0.0 0.00 0.93 0.00 95 994.2
20210727005802 58 0 0.0 0.0 0.00 0.93 0.00 95 994.2
20210727005702 58 0 0.0 0.0 0.00 0.93 0.00 94 994.3
20210727005601 58 0 0.0 0.0 0.00 0.93 0.00 94 994.4
20210727005502 58 0 0.0 0.0 0.00 0.93 0.00 94 994.3
20210727005402 58 0 0.0 0.0 0.00 0.93 0.00 94 994.3
20210727005305 58 0 0.0 0.0 0.00 0.93 0.00 94 994.2
20210727005202 58 0 0.0 0.0 0.00 0.93 0.00 94 994.3
20210727005101 58 0 0.0 0.0 0.00 0.93 0.00 94 994.1
20210727005002 58 90 0.0 2.0 0.00 0.93 0.00 94 994.2
20210727004902 58 117 0.0 2.0 0.00 0.93 0.00 94 994.4
20210727004802 58 122 0.0 2.0 0.00 0.93 0.00 94 994.3
20210727004701 58 125 0.0 2.0 0.00 0.93 0.00 94 994.3
20210727004602 58 126 0.0 2.0 0.00 0.93 0.00 94 994.1
20210727004503 58 127 0.0 2.0 0.00 0.93 0.00 94 994.4
20210727004402 58 128 0.0 2.0 0.00 0.93 0.00 94 994.2
20210727004302 58 129 0.0 2.0 0.00 0.93 0.00 94 994.2
20210727004202 58 129 0.0 2.0 0.00 0.93 0.00 94 994.3
20210727004102 58 130 1.0 2.0 0.00 0.93 0.00 94 994.3
20210727004001 58 135 2.0 2.0 0.00 0.93 0.00 93 994.3
20210727003902 58 135 0.0 2.0 0.00 0.93 0.00 93 994.4
20210727003802 58 135 1.0 2.0 0.00 0.93 0.00 93 994.4
20210727003702 58 135 0.0 2.0 0.00 0.93 0.00 93 994.5
20210727003602 59 135 0.0 2.0 0.00 0.93 0.00 93 994.6
20210727003502 59 135 1.0 2.0 0.00 0.93 0.00 92 994.5
20210727003402 59 135 1.0 2.0 0.00 0.93 0.00 92 994.2
20210727003302 59 135 0.0 2.0 0.00 0.93 0.00 92 994.3
20210727003202 59 135 1.0 2.0 0.00 0.93 0.00 92 994.5
20210727003102 59 135 0.0 2.0 0.00 0.93 0.00 92 994.3
20210727003004 59 135 0.0 2.0 0.00 0.93 0.00 92 994.1
20210727002902 59 135 1.0 2.0 0.00 0.93 0.00 92 994.3
20210727002802 59 135 0.0 2.0 0.00 0.93 0.00 92 994.4
20210727002701 59 135 0.0 2.0 0.00 0.93 0.00 92 994.4
20210727002602 59 135 0.0 2.0 0.00 0.93 0.00 91 994.2
20210727002502 60 148 0.0 2.0 0.00 0.93 0.00 91 994.4
20210727002402 60 162 0.0 2.0 0.00 0.93 0.00 91 994.4
20210727002301 60 168 0.0 2.0 0.00 0.93 0.00 91 994.5
20210727002201 60 175 0.0 2.0 0.00 0.93 0.00 91 994.5
20210727002102 60 191 0.0 4.0 0.00 0.93 0.00 91 994.3
20210727002002 60 185 0.0 4.0 0.00 0.93 0.00 91 994.4
20210727001902 60 183 0.0 4.0 0.00 0.93 0.00 92 994.3
20210727001802 59 183 0.0 4.0 0.00 0.93 0.00 92 994.4
20210727001702 59 174 0.0 4.0 0.00 0.93 0.00 92 994.2
20210727001602 59 174 2.0 4.0 0.00 0.93 0.00 92 994.4
20210727001504 59 181 1.0 4.0 0.00 0.93 0.00 92 994.4
20210727001402 59 181 1.0 4.0 0.00 0.93 0.00 92 994.4
20210727001302 59 181 2.0 4.0 0.00 0.93 0.00 93 994.5
20210727001202 59 171 2.0 4.0 0.00 0.93 0.00 93 994.3
20210727001102 59 125 2.0 4.0 0.00 0.93 0.00 93 994.4
20210727001002 59 94 1.0 2.0 0.00 0.93 0.00 93 994.5
20210727000902 59 90 0.0 2.0 0.00 0.93 0.00 93 994.5
20210727000802 59 117 1.0 2.0 0.00 0.93 0.00 93 994.6
20210727000701 59 181 0.0 2.0 0.00 0.93 0.00 94 994.4
20210727000602 59 181 0.0 2.0 0.00 0.93 0.00 94 994.5
20210727000502 59 181 0.0 2.0 0.00 0.93 0.00 94 994.5
20210727000402 59 181 0.0 2.0 0.00 0.93 0.00 94 994.4
20210727000302 59 181 0.0 2.0 0.00 0.93 0.00 94 994.4
20210727000203 59 181 0.0 2.0 0.00 0.93 0.00 94 994.4
20210727000102 59 181 0.0 2.0 0.00 0.93 0.00 94 994.3
20210727000004 59 181 0.0 2.0 0.00 0.93 0.00 94 994.7
20210726235902 59 181 0.0 2.0 0.00 0.93 0.00 94 994.3
20210726235802 59 181 0.0 2.0 0.00 0.93 0.00 94 994.3
20210726235701 59 181 1.0 2.0 0.00 0.93 0.00 94 994.4
20210726235602 59 181 1.0 2.0 0.00 0.93 0.00 94 994.6
20210726235502 59 181 1.0 2.0 0.00 0.93 0.00 94 994.7
20210726235402 59 181 0.0 2.0 0.00 0.93 0.00 94 994.7
20210726235305 59 181 0.0 2.0 0.00 0.93 0.00 94 994.7
20210726235202 59 181 0.0 2.0 0.00 0.93 0.00 94 994.6
20210726235102 59 181 0.0 2.0 0.00 0.93 0.00 94 994.7
20210726235002 59 181 0.0 2.0 0.00 0.93 0.00 94 994.7
20210726234902 59 181 0.0 2.0 0.00 0.93 0.00 93 994.6
20210726234801 59 181 0.0 2.0 0.00 0.93 0.00 93 994.6
20210726234702 59 182 0.0 2.0 0.00 0.93 0.00 93 994.7
20210726234602 59 183 0.0 2.0 0.00 0.93 0.00 93 994.5
20210726234504 59 183 0.0 2.0 0.00 0.93 0.00 93 994.8
20210726234402 59 184 0.0 2.0 0.00 0.93 0.00 93 994.4
20210726234302 59 184 0.0 2.0 0.00 0.93 0.00 93 994.7
20210726234202 59 184 0.0 2.0 0.00 0.93 0.00 93 994.7
20210726234101 59 184 0.0 2.0 0.00 0.93 0.00 93 994.6
20210726234002 59 184 1.0 2.0 0.00 0.93 0.00 93 994.8
20210726233902 59 186 2.0 2.0 0.00 0.93 0.00 93 994.5
20210726233802 59 192 2.0 2.0 0.00 0.93 0.00 93 994.5
20210726233701 59 203 0.0 2.0 0.00 0.93 0.00 93 994.5
20210726233601 59 0 0.0 0.0 0.00 0.93 0.00 93 994.5
20210726233502 59 0 0.0 0.0 0.00 0.93 0.00 93 994.6
20210726233402 59 0 0.0 0.0 0.00 0.93 0.00 93 994.6
20210726233302 59 0 0.0 0.0 0.00 0.93 0.00 94 994.5
20210726233202 59 0 0.0 0.0 0.00 0.93 0.00 93 994.3
20210726233102 59 0 0.0 0.0 0.00 0.93 0.00 93 994.5
20210726233004 59 0 0.0 0.0 0.00 0.93 0.00 93 994.5
20210726232902 59 0 0.0 0.0 0.00 0.93 0.00 93 994.6
20210726232802 59 0 0.0 0.0 0.00 0.93 0.00 94 994.5
20210726232702 59 0 0.0 0.0 0.00 0.93 0.00 94 994.5
20210726232602 59 0 0.0 0.0 0.00 0.93 0.00 94 994.5
20210726232502 59 0 0.0 0.0 0.00 0.93 0.00 94 994.4
20210726232402 59 0 0.0 0.0 0.00 0.93 0.00 94 994.5
20210726232305 59 0 0.0 0.0 0.00 0.93 0.00 94 994.4
20210726232202 59 0 0.0 0.0 0.00 0.93 0.00 94 994.5
20210726232101 59 0 0.0 0.0 0.00 0.93 0.00 94 994.5
20210726232002 59 0 0.0 0.0 0.00 0.93 0.00 94 994.4
20210726231902 59 0 0.0 0.0 0.00 0.93 0.00 93 994.4
20210726231802 59 0 0.0 0.0 0.00 0.93 0.00 93 994.6
20210726231702 59 0 0.0 0.0 0.00 0.93 0.00 94 994.6
20210726231602 59 0 0.0 0.0 0.00 0.93 0.00 94 994.4
20210726231503 59 0 0.0 0.0 0.00 0.93 0.00 93 994.6
20210726231402 59 0 0.0 0.0 0.00 0.93 0.00 94 994.5
20210726231302 59 0 0.0 0.0 0.00 0.93 0.00 94 994.4
20210726231202 59 0 0.0 0.0 0.00 0.93 0.00 94 994.5
20210726231102 59 0 0.0 0.0 0.00 0.93 0.00 94 994.6
20210726231002 59 0 0.0 0.0 0.00 0.93 0.00 94 994.4
20210726230902 59 0 0.0 0.0 0.00 0.93 0.00 94 994.3
20210726230802 59 203 0.0 2.0 0.00 0.93 0.00 94 994.3
20210726230702 59 203 0.0 2.0 0.00 0.93 0.00 94 994.3
20210726230602 58 203 0.0 2.0 0.00 0.93 0.00 95 994.6
20210726230502 58 203 0.0 4.0 0.00 0.93 0.00 95 994.5
20210726230402 58 204 0.0 4.0 0.00 0.93 0.00 95 994.5
20210726230302 58 208 0.0 4.0 0.00 0.93 0.00 94 994.5
20210726230202 58 210 0.0 4.0 0.00 0.93 0.00 95 994.5
20210726230102 58 209 0.0 4.0 0.00 0.93 0.00 94 994.5
20210726230004 58 209 0.0 4.0 0.00 0.93 0.00 95 994.4
20210726225902 58 209 0.0 4.0 0.00 0.93 0.00 95 994.5
20210726225802 58 209 0.0 4.0 0.00 0.93 0.00 95 994.5
20210726225702 58 210 1.0 4.0 0.00 0.93 0.00 95 994.5
20210726225602 58 212 1.0 4.0 0.00 0.93 0.00 95 994.6
20210726225502 58 214 2.0 4.0 0.00 0.93 0.00 96 994.6
20210726225402 58 218 1.0 2.0 0.00 0.93 0.00 96 994.7
20210726225305 58 213 1.0 2.0 0.00 0.93 0.00 96 994.6
20210726225202 58 203 1.0 2.0 0.00 0.93 0.00 96 994.6
20210726225102 58 0 0.0 0.0 0.00 0.93 0.00 96 994.5
20210726225002 58 0 0.0 0.0 0.00 0.93 0.00 96 994.5
20210726224902 58 203 0.0 2.0 0.00 0.93 0.00 96 994.4
20210726224802 58 203 0.0 2.0 0.00 0.93 0.00 96 994.8
20210726224702 58 203 0.0 2.0 0.00 0.93 0.00 96 994.6
20210726224602 58 203 0.0 2.0 0.00 0.93 0.00 96 994.6
20210726224504 58 203 0.0 2.0 0.00 0.93 0.00 96 994.6
20210726224402 58 203 0.0 2.0 0.00 0.93 0.00 95 994.6
20210726224302 58 203 0.0 2.0 0.00 0.93 0.00 95 994.5
20210726224202 58 203 0.0 2.0 0.00 0.93 0.00 95 994.6
20210726224101 58 203 0.0 2.0 0.00 0.93 0.00 95 994.6
20210726224002 58 203 0.0 2.0 0.00 0.93 0.00 95 994.5
20210726223902 58 0 0.0 0.0 0.00 0.93 0.00 95 994.5
20210726223802 58 0 0.0 0.0 0.00 0.93 0.00 95 994.4
20210726223702 58 0 0.0 0.0 0.00 0.93 0.00 95 994.6
20210726223601 58 0 0.0 0.0 0.00 0.93 0.00 95 994.4
20210726223502 58 0 0.0 0.0 0.00 0.93 0.00 95 994.4
20210726223402 58 0 0.0 0.0 0.00 0.93 0.00 95 994.2
20210726223302 58 0 0.0 0.0 0.00 0.93 0.00 95 994.2
20210726223202 58 0 0.0 0.0 0.00 0.93 0.00 95 994.2
20210726223102 58 0 0.0 0.0 0.00 0.93 0.00 95 994.3
20210726223003 58 0 0.0 0.0 0.00 0.93 0.00 95 994.4
20210726222901 58 0 0.0 0.0 0.00 0.93 0.00 95 994.3
20210726222802 58 203 0.0 2.0 0.00 0.93 0.00 95 994.4
20210726222702 58 203 0.0 2.0 0.00 0.93 0.00 95 994.3
20210726222602 58 203 0.0 2.0 0.00 0.93 0.00 95 994.4
20210726222502 58 204 0.0 2.0 0.00 0.93 0.00 95 994.4
20210726222402 58 220 0.0 2.0 0.00 0.93 0.00 95 994.3
20210726222305 58 233 0.0 2.0 0.00 0.93 0.00 95 994.4
20210726222202 58 233 0.0 2.0 0.00 0.93 0.00 95 994.4
20210726222102 58 233 0.0 2.0 0.00 0.93 0.00 95 994.3
20210726222002 58 233 0.0 2.0 0.00 0.93 0.00 95 994.3
20210726221902 58 233 0.0 2.0 0.00 0.93 0.00 95 994.3
20210726221802 58 286 1.0 2.0 0.00 0.93 0.00 95 994.3
20210726221702 58 352 1.0 2.0 0.00 0.93 0.00 96 994.3
20210726221602 58 1 0.0 2.0 0.00 0.93 0.00 95 994.3
20210726221504 58 1 0.0 2.0 0.00 0.93 0.00 95 994.3
20210726221402 58 1 0.0 2.0 0.00 0.93 0.00 95 994.5
20210726221302 58 1 0.0 2.0 0.00 0.93 0.00 95 994.3
20210726221202 58 1 0.0 2.0 0.00 0.93 0.00 95 994.4
20210726221102 58 1 0.0 2.0 0.00 0.93 0.00 95 994.5
20210726221002 58 1 0.0 2.0 0.00 0.93 0.00 95 994.5
20210726220902 58 1 0.0 2.0 0.00 0.93 0.00 95 994.3
20210726220802 58 1 0.0 2.0 0.00 0.93 0.00 95 994.4
20210726220703 58 1 1.0 2.0 0.00 0.93 0.00 95 994.3
20210726220602 58 1 0.0 2.0 0.00 0.93 0.00 95 994.3
20210726220502 58 1 0.0 2.0 0.00 0.93 0.00 95 994.4
20210726220402 58 1 0.0 2.0 0.00 0.93 0.00 95 994.3
20210726220302 58 1 0.0 2.0 0.00 0.93 0.00 95 994.5
20210726220202 58 1 0.0 2.0 0.00 0.93 0.00 95 994.3
20210726220102 58 1 0.0 2.0 0.00 0.93 0.00 95 994.4
20210726220004 58 1 0.0 2.0 0.00 0.93 0.00 95 994.3
20210726215902 58 1 0.0 2.0 0.00 0.93 0.93 95 994.2
20210726215802 58 1 0.0 2.0 0.00 0.93 0.93 95 994.2
20210726215702 58 1 0.0 2.0 0.00 0.93 0.93 95 994.3
20210726215602 58 1 0.0 2.0 0.00 0.93 0.93 95 994.1
20210726215502 58 1 0.0 2.0 0.00 0.93 0.93 95 994.1
20210726215403 58 1 1.0 2.0 0.00 0.93 0.93 95 994.3
20210726215305 58 1 0.0 2.0 0.00 0.93 0.93 95 994.1
20210726215202 58 1 0.0 2.0 0.00 0.93 0.93 95 994.3
20210726215102 58 1 0.0 2.0 0.00 0.93 0.93 95 994.1
20210726215002 58 1 0.0 2.0 0.00 0.93 0.93 95 994.3
20210726214902 58 1 0.0 2.0 0.00 0.93 0.93 95 994.2
20210726214802 58 1 0.0 2.0 0.00 0.93 0.93 95 994.2
20210726214702 58 1 0.0 2.0 0.00 0.93 0.93 95 994.1
20210726214602 58 1 1.0 2.0 0.00 0.93 0.93 95 994.1
20210726214503 58 1 0.0 2.0 0.00 0.93 0.93 95 994.1
20210726214402 58 1 0.0 2.0 0.00 0.93 0.93 95 994.0
20210726214302 58 1 0.0 2.0 0.00 0.93 0.93 94 994.2
20210726214202 58 1 0.0 2.0 0.00 0.93 0.93 94 994.2
20210726214102 58 1 0.0 2.0 0.00 0.93 0.93 94 994.2
20210726214003 58 1 0.0 2.0 0.00 0.93 0.93 94 994.2
20210726213902 58 1 1.0 2.0 0.00 0.93 0.93 94 994.1
20210726213802 58 1 1.0 2.0 0.00 0.93 0.93 94 994.0
20210726213702 58 1 1.0 2.0 0.00 0.93 0.93 94 994.1
20210726213602 58 1 2.0 2.0 0.00 0.93 0.93 94 994.1
20210726213502 58 1 2.0 2.0 0.00 0.93 0.93 94 993.9
20210726213402 58 1 1.0 2.0 0.00 0.93 0.93 94 994.1
20210726213302 58 1 1.0 2.0 0.00 0.93 0.93 94 994.2
20210726213202 58 1 1.0 2.0 0.00 0.93 0.93 94 994.2
20210726213102 58 1 0.0 2.0 0.00 0.93 0.93 94 994.0
20210726213003 58 1 0.0 2.0 0.00 0.93 0.93 94 994.1
20210726212902 58 1 0.0 2.0 0.00 0.93 0.93 94 994.1
20210726212802 58 1 1.0 2.0 0.00 0.93 0.93 94 994.1
20210726212702 58 1 1.0 2.0 0.00 0.93 0.93 94 994.0
20210726212602 58 1 0.0 2.0 0.00 0.93 0.93 93 994.1
20210726212502 58 1 0.0 2.0 0.00 0.93 0.93 93 994.0
20210726212402 58 1 0.0 2.0 0.00 0.93 0.93 93 994.1
20210726212305 59 1 0.0 2.0 0.00 0.93 0.93 93 994.0
20210726212202 59 1 0.0 2.0 0.00 0.93 0.93 93 994.2
20210726212103 59 1 0.0 2.0 0.00 0.93 0.93 93 994.2
20210726212002 59 1 0.0 2.0 0.00 0.93 0.93 93 994.3
20210726211902 59 1 0.0 2.0 0.00 0.93 0.93 93 994.1
20210726211802 59 1 0.0 2.0 0.00 0.93 0.93 93 994.1
20210726211702 59 1 0.0 2.0 0.00 0.93 0.93 92 994.1
20210726211602 59 1 0.0 2.0 0.00 0.93 0.93 92 994.1
20210726211504 59 1 0.0 2.0 0.00 0.93 0.93 92 994.1
20210726211402 59 1 0.0 2.0 0.00 0.93 0.93 92 994.0
20210726211302 59 1 0.0 2.0 0.00 0.93 0.93 92 994.3
20210726211202 59 1 1.0 2.0 0.00 0.93 0.93 92 994.1
20210726211102 59 1 0.0 2.0 0.00 0.93 0.93 92 994.3
20210726211002 60 0 0.0 0.0 0.00 0.93 0.93 92 994.0
20210726210902 60 0 0.0 0.0 0.00 0.93 0.93 92 994.4
20210726210802 60 0 0.0 0.0 0.00 0.93 0.93 92 994.2
20210726210702 60 0 0.0 0.0 0.00 0.93 0.93 91 994.1
20210726210602 59 0 0.0 0.0 0.00 0.93 0.93 91 994.2
20210726210502 59 0 0.0 0.0 0.00 0.93 0.93 91 994.3
20210726210402 59 0 0.0 0.0 0.00 0.93 0.93 91 994.2
20210726210302 59 0 0.0 0.0 0.00 0.93 0.93 91 994.3
20210726210202 59 0 0.0 0.0 0.00 0.93 0.93 91 994.1
20210726210102 59 0 0.0 0.0 0.00 0.93 0.93 92 994.0
20210726210004 59 0 0.0 0.0 0.00 0.93 0.93 92 994.1
20210726205902 59 0 0.0 0.0 0.00 0.93 0.93 92 994.0
20210726205802 59 0 0.0 0.0 0.00 0.93 0.93 93 993.9
20210726205701 59 0 0.0 0.0 0.00 0.93 0.93 93 994.1
20210726205602 59 0 0.0 0.0 0.00 0.93 0.93 94 994.0
20210726205502 59 0 0.0 0.0 0.00 0.93 0.93 94 993.8
20210726205402 59 0 0.0 0.0 0.00 0.93 0.93 94 994.3
20210726205305 59 0 0.0 0.0 0.00 0.93 0.93 94 994.2
20210726205202 59 0 0.0 0.0 0.00 0.93 0.93 95 994.2
20210726205102 59 0 0.0 0.0 0.00 0.93 0.93 95 994.1
20210726205002 59 0 0.0 0.0 0.00 0.93 0.93 95 994.0
20210726204903 59 0 0.0 0.0 0.00 0.93 0.93 95 994.0
20210726204802 59 0 0.0 0.0 0.00 0.93 0.93 95 994.2
20210726204702 59 0 0.0 0.0 0.00 0.93 0.93 95 994.0
20210726204602 59 0 0.0 0.0 0.00 0.93 0.93 95 994.0
20210726204503 59 0 0.0 0.0 0.00 0.93 0.93 95 994.2
20210726204402 59 0 0.0 0.0 0.00 0.93 0.93 95 994.1
20210726204302 59 0 0.0 0.0 0.00 0.93 0.93 95 994.3
20210726204202 59 0 0.0 0.0 0.00 0.93 0.93 95 993.9
20210726204102 59 0 0.0 0.0 0.00 0.93 0.93 95 994.0
20210726204002 59 0 0.0 0.0 0.00 0.93 0.93 95 994.3
20210726203902 59 0 0.0 0.0 0.00 0.93 0.93 95 994.0
20210726203802 59 0 0.0 0.0 0.00 0.93 0.93 95 994.0
20210726203702 59 0 0.0 0.0 0.00 0.93 0.93 95 993.9
20210726203602 59 0 0.0 0.0 0.00 0.93 0.93 95 994.0
20210726203502 59 0 0.0 0.0 0.00 0.93 0.93 95 993.9
20210726203402 59 0 0.0 0.0 0.00 0.93 0.93 95 994.1
20210726203302 59 0 0.0 0.0 0.00 0.93 0.93 95 993.7
20210726203202 59 0 0.0 0.0 0.00 0.93 0.93 95 993.8
20210726203102 59 0 0.0 0.0 0.00 0.93 0.93 95 993.9
20210726203003 59 0 0.0 0.0 0.00 0.93 0.93 95 993.8
20210726202902 59 0 0.0 0.0 0.00 0.93 0.93 95 993.9
20210726202802 59 0 0.0 0.0 0.00 0.93 0.93 95 994.3
20210726202702 59 0 0.0 0.0 0.00 0.93 0.93 95 994.1
20210726202602 59 0 0.0 0.0 0.00 0.93 0.93 95 994.2
20210726202502 59 0 0.0 0.0 0.00 0.93 0.93 95 994.2
20210726202402 59 0 0.0 0.0 0.00 0.93 0.93 95 994.0
20210726202305 59 0 0.0 0.0 0.00 0.93 0.93 95 994.2
20210726202202 59 0 0.0 0.0 0.00 0.93 0.93 95 994.2
20210726202102 59 0 0.0 0.0 0.00 0.93 0.93 95 994.0
20210726202002 59 0 0.0 0.0 0.00 0.93 0.93 95 994.1
20210726201902 59 0 0.0 0.0 0.00 0.93 0.93 95 993.9
20210726201802 59 0 0.0 0.0 0.00 0.93 0.93 95 993.9
20210726201702 59 0 0.0 0.0 0.00 0.93 0.93 95 994.0
20210726201603 59 0 0.0 0.0 0.00 0.93 0.93 95 993.9
20210726201503 59 0 0.0 0.0 0.00 0.93 0.93 95 994.0
20210726201402 59 0 0.0 0.0 0.00 0.93 0.93 95 993.8
20210726201302 59 0 0.0 0.0 0.00 0.93 0.93 95 993.9
20210726201202 59 0 0.0 0.0 0.00 0.93 0.93 95 993.9
20210726201102 59 0 0.0 0.0 0.00 0.93 0.93 95 993.9
20210726201002 60 0 0.0 0.0 0.00 0.93 0.93 95 993.7
20210726200902 60 0 0.0 0.0 0.00 0.93 0.93 95 993.8
20210726200802 60 0 0.0 0.0 0.00 0.93 0.93 95 993.8
20210726200702 59 0 0.0 0.0 0.00 0.93 0.93 95 993.8
20210726200603 59 0 0.0 0.0 0.00 0.93 0.93 95 993.6
20210726200502 59 0 0.0 0.0 0.00 0.93 0.93 95 993.8
20210726200402 59 0 0.0 0.0 0.00 0.93 0.93 94 993.9
20210726200302 59 0 0.0 0.0 0.00 0.93 0.93 94 993.9
20210726200203 59 0 0.0 0.0 0.00 0.93 0.93 94 993.9
20210726200102 59 0 0.0 0.0 0.00 0.93 0.93 94 993.7
20210726200004 59 0 0.0 0.0 0.00 0.93 0.93 94 993.9
20210726195902 59 0 0.0 0.0 0.00 0.93 0.93 94 993.9
20210726195802 60 0 0.0 0.0 0.00 0.93 0.93 94 993.8
20210726195703 59 0 0.0 0.0 0.00 0.93 0.93 94 993.9
20210726195603 60 0 0.0 0.0 0.00 0.93 0.93 94 993.9
20210726195502 60 0 0.0 0.0 0.00 0.93 0.93 94 993.8
20210726195403 60 0 0.0 0.0 0.00 0.93 0.93 94 993.8
20210726195305 60 0 0.0 0.0 0.00 0.93 0.93 94 994.0
20210726195202 60 0 0.0 0.0 0.00 0.93 0.93 94 993.9
20210726195102 60 0 0.0 0.0 0.01 0.93 0.93 94 993.9
20210726195002 60 0 0.0 0.0 0.01 0.93 0.93 94 993.9
20210726194902 60 0 0.0 0.0 0.01 0.93 0.93 94 993.7
20210726194802 60 0 0.0 0.0 0.01 0.93 0.93 94 993.9
20210726194703 60 0 0.0 0.0 0.01 0.93 0.93 94 994.0
20210726194603 60 0 0.0 0.0 0.01 0.93 0.93 94 994.0
20210726194504 60 0 0.0 0.0 0.01 0.93 0.93 94 993.9
20210726194403 60 0 0.0 0.0 0.01 0.93 0.93 94 993.7
20210726194302 60 0 0.0 0.0 0.01 0.93 0.93 94 993.7
20210726194203 60 0 0.0 0.0 0.01 0.93 0.93 94 993.8
20210726194103 60 0 0.0 0.0 0.01 0.93 0.93 94 993.8
20210726194002 60 0 0.0 0.0 0.01 0.93 0.93 94 993.8
20210726193902 60 0 0.0 0.0 0.01 0.93 0.93 94 993.8
20210726193803 60 0 0.0 0.0 0.01 0.93 0.93 94 993.7
20210726193702 60 0 0.0 0.0 0.01 0.93 0.93 94 994.0
20210726193602 60 22 0.0 2.0 0.01 0.93 0.93 94 993.7
20210726193502 60 23 0.0 2.0 0.01 0.93 0.93 94 993.7
20210726193402 60 23 0.0 2.0 0.01 0.93 0.93 93 993.7
20210726193302 60 22 0.0 2.0 0.01 0.93 0.93 93 993.8
20210726193202 60 23 0.0 2.0 0.01 0.93 0.93 93 993.8
20210726193102 60 23 0.0 2.0 0.01 0.93 0.93 93 993.7
20210726193004 60 23 0.0 2.0 0.01 0.93 0.93 93 993.6
20210726192902 60 27 0.0 2.0 0.02 0.93 0.93 93 993.4
20210726192803 60 33 0.0 4.0 0.02 0.93 0.93 93 993.4
20210726192703 60 38 0.0 4.0 0.02 0.93 0.93 93 993.6
20210726192602 60 43 0.0 4.0 0.02 0.93 0.93 93 993.6
20210726192503 60 46 1.0 4.0 0.02 0.93 0.93 93 993.6
20210726192402 61 48 0.0 4.0 0.02 0.93 0.93 93 993.6
20210726192305 60 48 0.0 4.0 0.02 0.93 0.93 93 993.6
20210726192202 61 52 1.0 4.0 0.02 0.93 0.93 93 993.4
20210726192103 61 53 0.0 4.0 0.04 0.93 0.93 93 993.3
20210726192002 61 53 1.0 4.0 0.04 0.93 0.93 93 993.5
20210726191902 61 54 2.0 4.0 0.04 0.93 0.93 93 993.7
20210726191802 61 58 3.0 4.0 0.04 0.93 0.93 93 993.5
20210726191702 61 59 1.0 4.0 0.04 0.93 0.93 93 993.4
20210726191602 61 46 0.0 2.0 0.04 0.93 0.93 93 993.4
20210726191503 61 46 0.0 2.0 0.04 0.93 0.93 93 993.5
20210726191403 61 46 0.0 2.0 0.04 0.93 0.93 93 993.2
20210726191302 61 0 0.0 0.0 0.04 0.93 0.93 93 993.5
20210726191202 61 0 0.0 0.0 0.04 0.93 0.93 93 993.3
20210726191103 61 0 0.0 0.0 0.04 0.93 0.93 93 993.3
20210726191002 61 0 0.0 0.0 0.04 0.93 0.93 93 993.3
20210726190903 61 0 0.0 0.0 0.04 0.93 0.93 93 993.3
20210726190803 61 0 0.0 0.0 0.04 0.93 0.93 92 993.3
20210726190703 61 68 0.0 2.0 0.04 0.93 0.93 92 993.2
20210726190602 62 54 0.0 4.0 0.04 0.93 0.93 92 993.5
20210726190503 62 55 0.0 4.0 0.04 0.93 0.93 92 993.3
20210726190403 62 59 0.0 4.0 0.04 0.93 0.93 92 993.1
20210726190302 62 59 0.0 4.0 0.04 0.93 0.93 92 993.2
20210726190202 62 59 0.0 4.0 0.04 0.93 0.93 92 993.0
20210726190103 62 59 0.0 4.0 0.04 0.93 0.93 92 993.0
20210726190003 62 59 0.0 4.0 0.04 0.93 0.93 92 992.8
20210726185903 62 65 0.0 4.0 0.04 0.93 0.93 92 992.9
20210726185802 62 71 0.0 4.0 0.04 0.93 0.93 92 992.9
20210726185702 62 75 2.0 4.0 0.04 0.93 0.93 92 992.9
20210726185602 63 82 1.0 4.0 0.04 0.93 0.93 92 992.9
20210726185502 63 89 2.0 4.0 0.04 0.93 0.93 92 993.0
20210726185403 63 99 2.0 2.0 0.04 0.93 0.93 92 992.7
20210726185305 63 111 0.0 4.0 0.04 0.93 0.93 92 993.0
20210726185202 63 111 0.0 4.0 0.04 0.93 0.93 92 992.9
20210726185103 63 115 0.0 4.0 0.02 0.92 0.92 92 993.1
20210726185002 63 114 0.0 4.0 0.02 0.92 0.92 92 992.8
20210726184902 63 114 1.0 4.0 0.02 0.92 0.92 92 993.3
20210726184803 63 114 0.0 4.0 0.02 0.92 0.92 92 993.1
20210726184703 63 116 0.0 4.0 0.02 0.92 0.92 92 993.2
20210726184603 63 114 0.0 4.0 0.02 0.92 0.92 92 993.3
20210726184504 63 112 0.0 4.0 0.02 0.92 0.92 92 993.4
20210726184403 63 107 1.0 4.0 0.02 0.92 0.92 92 993.3
20210726184303 63 96 2.0 6.0 0.02 0.92 0.92 93 993.4
20210726184202 63 90 2.0 7.0 0.02 0.92 0.92 93 993.5
20210726184102 63 90 2.0 8.0 0.02 0.92 0.92 93 993.4
20210726184002 63 90 1.0 8.0 0.02 0.92 0.92 93 993.4
20210726183902 63 90 1.0 8.0 0.02 0.92 0.92 93 993.3
20210726183802 63 90 1.0 8.0 0.02 0.92 0.92 93 993.4
20210726183702 63 93 2.0 8.0 0.02 0.92 0.92 93 993.2
20210726183602 63 95 2.0 8.0 0.02 0.92 0.92 93 993.4
20210726183503 63 93 2.0 8.0 0.02 0.92 0.92 93 993.3
20210726183402 63 97 2.0 8.0 0.02 0.92 0.92 93 993.2
20210726183302 63 107 4.0 8.0 0.02 0.92 0.92 93 993.1
20210726183202 63 119 2.0 8.0 0.02 0.92 0.92 93 993.6
20210726183102 63 126 0.0 4.0 0.02 0.92 0.92 93 993.4
20210726183003 63 129 0.0 4.0 0.02 0.92 0.92 93 993.6
20210726182902 63 138 2.0 4.0 0.01 0.91 0.91 93 993.6
20210726182802 63 190 1.0 4.0 0.01 0.91 0.91 93 993.6
20210726182702 63 253 0.0 2.0 0.01 0.91 0.91 93 993.7
20210726182603 63 259 0.0 2.0 0.01 0.91 0.91 93 993.4
20210726182502 63 244 0.0 4.0 0.01 0.91 0.91 93 993.6
20210726182402 63 238 0.0 4.0 0.01 0.91 0.91 93 993.4
20210726182305 63 234 0.0 7.0 0.01 0.91 0.91 93 993.2
20210726182202 63 237 0.0 7.0 0.00 0.90 0.90 92 993.4
20210726182103 63 236 0.0 7.0 0.00 0.90 0.90 92 993.3
20210726182002 63 239 0.0 7.0 0.00 0.90 0.90 92 993.5
20210726181902 63 238 0.0 7.0 0.00 0.90 0.90 92 993.4
20210726181802 63 238 0.0 7.0 0.00 0.90 0.90 92 993.1
20210726181702 63 236 1.0 7.0 0.00 0.90 0.90 92 993.6
20210726181603 63 236 2.0 7.0 0.00 0.90 0.90 92 993.3
20210726181504 63 237 1.0 7.0 0.00 0.90 0.90 92 993.3
20210726181403 63 240 3.0 7.0 0.00 0.90 0.90 92 993.4
20210726181303 63 242 2.0 7.0 0.00 0.90 0.90 92 993.3
20210726181203 63 241 3.0 7.0 0.00 0.90 0.90 92 993.2
20210726181102 63 245 3.0 7.0 0.00 0.90 0.90 92 993.4
20210726181003 63 238 4.0 7.0 0.00 0.90 0.90 92 993.3
20210726180902 63 242 4.0 6.0 0.00 0.90 0.90 93 993.3
20210726180802 63 225 2.0 2.0 0.00 0.90 0.90 93 993.3
20210726180703 63 0 0.0 0.0 0.00 0.90 0.90 93 993.5
20210726180602 63 0 0.0 0.0 0.00 0.90 0.90 93 993.3
20210726180502 63 0 0.0 0.0 0.00 0.90 0.90 93 993.2
20210726180402 63 0 0.0 0.0 0.00 0.90 0.90 93 992.9
20210726180302 63 0 0.0 0.0 0.00 0.90 0.90 93 992.9
20210726180202 63 0 0.0 0.0 0.00 0.90 0.90 93 993.0
20210726180103 63 0 0.0 0.0 0.00 0.90 0.90 93 992.8
20210726180004 63 0 0.0 0.0 0.00 0.90 0.90 94 992.8
20210726175902 62 0 0.0 0.0 0.00 0.90 0.90 93 993.1
20210726175802 63 0 0.0 0.0 0.00 0.90 0.90 93 992.9
20210726175702 63 0 0.0 0.0 0.00 0.90 0.90 93 993.1
20210726175603 63 0 0.0 0.0 0.00 0.90 0.90 93 993.1
20210726175503 63 0 0.0 0.0 0.00 0.90 0.90 93 993.2
20210726175403 63 0 0.0 0.0 0.00 0.90 0.90 93 993.0
20210726175306 63 0 0.0 0.0 0.00 0.90 0.90 93 993.4
20210726175202 63 0 0.0 0.0 0.00 0.90 0.90 93 993.2
20210726175102 63 0 0.0 0.0 0.00 0.90 0.90 93 993.2
20210726175003 63 0 0.0 0.0 0.00 0.90 0.90 93 992.8
20210726174903 63 0 0.0 0.0 0.00 0.90 0.90 93 992.8
20210726174803 63 0 0.0 0.0 0.00 0.90 0.90 93 992.8
20210726174703 63 0 0.0 0.0 0.00 0.90 0.90 93 992.9
20210726174602 63 0 0.0 0.0 0.00 0.90 0.90 93 992.8
20210726174504 63 0 0.0 0.0 0.00 0.90 0.90 92 992.8
20210726174402 63 0 0.0 0.0 0.00 0.90 0.90 92 992.6
20210726174302 63 0 0.0 0.0 0.00 0.90 0.90 92 992.9
20210726174202 63 0 0.0 0.0 0.00 0.90 0.90 92 993.0
20210726174103 63 46 0.0 4.0 0.00 0.90 0.90 92 992.8
20210726174002 63 36 0.0 4.0 0.00 0.90 0.90 92 992.9
20210726173902 63 34 0.0 4.0 0.00 0.90 0.90 92 992.8
20210726173802 63 34 0.0 4.0 0.00 0.90 0.90 91 992.9
20210726173703 63 34 0.0 4.0 0.00 0.90 0.90 91 993.0
20210726173602 63 31 0.0 4.0 0.00 0.90 0.90 91 992.8
20210726173502 63 29 0.0 4.0 0.00 0.90 0.90 91 992.9